| time (UTC) | temp F | wind direction | speed MPH | gust MPH | rain 1hr in | rain 24hr in | rain mn in | humidity % | barometer mb |
| 20260505083406 | 58 | 210 | 6.0 | 20.0 | 0.00 | 0.00 | 0.00 | 68 | 1013.0 |
| 20260505083306 | 58 | 183 | 6.0 | 20.0 | 0.00 | 0.00 | 0.00 | 68 | 1013.0 |
| 20260505083252 | 58 | 190 | 6.0 | 24.0 | 0.00 | 0.00 | 0.00 | 68 | 1012.9 |
| 20260505083231 | 58 | 199 | 6.0 | 24.0 | 0.00 | 0.00 | 0.00 | 68 | 1013.0 |
| 20260505083108 | 58 | 183 | 6.0 | 24.0 | 0.00 | 0.00 | 0.00 | 67 | 1012.9 |
| 20260505083047 | 58 | 196 | 6.0 | 24.0 | 0.00 | 0.00 | 0.00 | 68 | 1013.0 |
| 20260505082855 | 58 | 207 | 6.0 | 24.0 | 0.00 | 0.00 | 0.00 | 68 | 1013.0 |
| 20260505082848 | 58 | 180 | 6.0 | 24.0 | 0.00 | 0.00 | 0.00 | 68 | 1012.9 |
| 20260505082830 | 58 | 195 | 7.0 | 24.0 | 0.00 | 0.00 | 0.00 | 68 | 1012.9 |
| 20260505082450 | 58 | 237 | 6.0 | 24.0 | 0.00 | 0.00 | 0.00 | 68 | 1012.9 |
| 20260505082350 | 58 | 175 | 6.0 | 24.0 | 0.00 | 0.00 | 0.00 | 68 | 1012.8 |
| 20260505082250 | 58 | 195 | 6.0 | 20.0 | 0.00 | 0.00 | 0.00 | 68 | 1012.9 |
| 20260505082150 | 58 | 198 | 6.0 | 20.0 | 0.00 | 0.00 | 0.00 | 69 | 1012.9 |
| 20260505082049 | 58 | 200 | 6.0 | 22.0 | 0.00 | 0.00 | 0.00 | 68 | 1013.0 |
| 20260505081949 | 58 | 204 | 6.0 | 22.0 | 0.00 | 0.00 | 0.00 | 68 | 1012.9 |
| 20260505081848 | 58 | 175 | 6.0 | 22.0 | 0.00 | 0.00 | 0.00 | 68 | 1012.9 |
| 20260505081822 | 58 | 207 | 6.0 | 22.0 | 0.00 | 0.00 | 0.00 | 68 | 1012.9 |
| 20260505081811 | 58 | 184 | 6.0 | 22.0 | 0.00 | 0.00 | 0.00 | 68 | 1012.9 |
| 20260505081550 | 58 | 210 | 6.0 | 22.0 | 0.00 | 0.00 | 0.00 | 68 | 1012.9 |
| 20260505081450 | 58 | 191 | 6.0 | 22.0 | 0.00 | 0.00 | 0.00 | 67 | 1013.0 |
| 20260505081349 | 58 | 165 | 6.0 | 22.0 | 0.00 | 0.00 | 0.00 | 68 | 1012.9 |
| 20260505081250 | 58 | 190 | 6.0 | 22.0 | 0.00 | 0.00 | 0.00 | 68 | 1012.9 |
| 20260505081150 | 58 | 186 | 6.0 | 22.0 | 0.00 | 0.00 | 0.00 | 68 | 1012.9 |
| 20260505081050 | 58 | 190 | 6.0 | 17.0 | 0.00 | 0.00 | 0.00 | 68 | 1012.9 |
| 20260505080944 | 58 | 192 | 6.0 | 17.0 | 0.00 | 0.00 | 0.00 | 68 | 1012.9 |
| 20260505080845 | 58 | 107 | 6.0 | 17.0 | 0.00 | 0.00 | 0.00 | 68 | 1012.9 |
| 20260505080744 | 58 | 183 | 6.0 | 19.0 | 0.00 | 0.00 | 0.00 | 69 | 1013.0 |
| 20260505080644 | 58 | 167 | 6.0 | 19.0 | 0.00 | 0.00 | 0.00 | 69 | 1012.9 |
| 20260505080544 | 58 | 196 | 7.0 | 19.0 | 0.00 | 0.00 | 0.00 | 68 | 1012.9 |
| 20260505080442 | 58 | 195 | 7.0 | 19.0 | 0.00 | 0.00 | 0.00 | 68 | 1013.0 |
| 20260505080343 | 58 | 200 | 7.0 | 19.0 | 0.00 | 0.00 | 0.00 | 68 | 1012.8 |
| 20260505080243 | 58 | 213 | 7.0 | 19.0 | 0.00 | 0.00 | 0.00 | 68 | 1013.0 |
| 20260505080145 | 58 | 202 | 7.0 | 19.0 | 0.00 | 0.00 | 0.00 | 68 | 1012.9 |
| 20260505080044 | 58 | 199 | 7.0 | 19.0 | 0.00 | 0.00 | 0.00 | 68 | 1012.9 |
| 20260505075944 | 58 | 179 | 7.0 | 19.0 | 0.00 | 0.00 | 0.00 | 68 | 1012.9 |
| 20260505075910 | 58 | 223 | 7.0 | 27.0 | 0.00 | 0.00 | 0.00 | 69 | 1012.9 |
| 20260505075904 | 58 | 221 | 7.0 | 27.0 | 0.00 | 0.00 | 0.00 | 68 | 1012.9 |
| 20260505075900 | 58 | 211 | 7.0 | 27.0 | 0.00 | 0.00 | 0.00 | 69 | 1012.9 |
| 20260505075847 | 58 | 206 | 7.0 | 19.0 | 0.00 | 0.00 | 0.00 | 68 | 1012.9 |
| 20260505075828 | 58 | 190 | 7.0 | 27.0 | 0.00 | 0.00 | 0.00 | 68 | 1012.9 |
| 20260505075541 | 58 | 229 | 7.0 | 27.0 | 0.00 | 0.00 | 0.00 | 68 | 1012.9 |
| 20260505075520 | 58 | 190 | 7.0 | 27.0 | 0.00 | 0.00 | 0.00 | 68 | 1012.9 |
| 20260505075212 | 58 | 167 | 7.0 | 27.0 | 0.00 | 0.00 | 0.00 | 69 | 1012.9 |
| 20260505075207 | 58 | 191 | 7.0 | 27.0 | 0.00 | 0.00 | 0.00 | 69 | 1012.9 |
| 20260505075156 | 58 | 200 | 7.0 | 27.0 | 0.00 | 0.00 | 0.00 | 69 | 1012.9 |
| 20260505075134 | 58 | 170 | 7.0 | 27.0 | 0.00 | 0.00 | 0.00 | 69 | 1012.9 |
| 20260505074838 | 58 | 209 | 7.0 | 19.0 | 0.00 | 0.00 | 0.00 | 70 | 1013.0 |
| 20260505074833 | 58 | 187 | 7.0 | 23.0 | 0.00 | 0.00 | 0.00 | 69 | 1012.9 |
| 20260505074827 | 58 | 194 | 7.0 | 23.0 | 0.00 | 0.00 | 0.00 | 69 | 1012.9 |
| 20260505074816 | 58 | 219 | 7.0 | 23.0 | 0.00 | 0.00 | 0.00 | 70 | 1012.9 |
| 20260505074630 | 58 | 240 | 7.0 | 23.0 | 0.00 | 0.00 | 0.00 | 69 | 1012.9 |
| 20260505074342 | 58 | 202 | 7.0 | 23.0 | 0.00 | 0.00 | 0.00 | 69 | 1012.9 |
| 20260505074320 | 58 | 298 | 6.0 | 23.0 | 0.00 | 0.00 | 0.00 | 70 | 1013.0 |
| 20260505074157 | 58 | 205 | 7.0 | 19.0 | 0.00 | 0.00 | 0.00 | 70 | 1012.9 |
| 20260505073936 | 58 | 162 | 6.0 | 19.0 | 0.00 | 0.00 | 0.00 | 70 | 1013.0 |
| 20260505073854 | 58 | 212 | 7.0 | 19.0 | 0.00 | 0.00 | 0.00 | 70 | 1013.1 |
| 20260505073842 | 58 | 225 | 6.0 | 19.0 | 0.00 | 0.00 | 0.00 | 70 | 1012.9 |
| 20260505073820 | 58 | 200 | 7.0 | 19.0 | 0.00 | 0.00 | 0.00 | 70 | 1013.1 |
| 20260505073657 | 58 | 207 | 7.0 | 19.0 | 0.00 | 0.00 | 0.00 | 70 | 1013.1 |
| 20260505073437 | 58 | 202 | 7.0 | 19.0 | 0.00 | 0.00 | 0.00 | 70 | 1013.2 |
| 20260505073337 | 58 | 220 | 7.0 | 19.0 | 0.00 | 0.00 | 0.00 | 70 | 1013.1 |
| 20260505073238 | 58 | 204 | 7.0 | 19.0 | 0.00 | 0.00 | 0.00 | 70 | 1013.1 |
| 20260505073138 | 58 | 209 | 7.0 | 19.0 | 0.00 | 0.00 | 0.00 | 69 | 1013.1 |
| 20260505073037 | 58 | 204 | 7.0 | 19.0 | 0.00 | 0.00 | 0.00 | 70 | 1013.1 |
| 20260505073004 | 58 | 219 | 7.0 | 19.0 | 0.00 | 0.00 | 0.00 | 69 | 1013.1 |
| 20260505072955 | 58 | 178 | 7.0 | 19.0 | 0.00 | 0.00 | 0.00 | 69 | 1013.2 |
| 20260505072731 | 58 | 182 | 7.0 | 19.0 | 0.00 | 0.00 | 0.00 | 70 | 1013.1 |
| 20260505072706 | 58 | 211 | 7.0 | 19.0 | 0.00 | 0.00 | 0.00 | 70 | 1013.2 |
| 20260505072654 | 58 | 190 | 7.0 | 19.0 | 0.00 | 0.00 | 0.00 | 70 | 1013.1 |
| 20260505072432 | 58 | 194 | 7.0 | 19.0 | 0.00 | 0.00 | 0.00 | 70 | 1013.2 |
| 20260505072324 | 58 | 188 | 7.0 | 20.0 | 0.00 | 0.00 | 0.00 | 70 | 1013.2 |
| 20260505072226 | 58 | 191 | 7.0 | 20.0 | 0.00 | 0.00 | 0.00 | 70 | 1013.4 |
| 20260505072125 | 58 | 193 | 7.0 | 20.0 | 0.00 | 0.00 | 0.00 | 69 | 1013.4 |
| 20260505072026 | 58 | 207 | 6.0 | 20.0 | 0.00 | 0.00 | 0.00 | 70 | 1013.5 |
| 20260505071926 | 58 | 190 | 6.0 | 20.0 | 0.00 | 0.00 | 0.00 | 70 | 1013.5 |
| 20260505071904 | 58 | 198 | 6.0 | 18.0 | 0.00 | 0.00 | 0.00 | 69 | 1013.6 |
| 20260505071858 | 58 | 136 | 6.0 | 20.0 | 0.00 | 0.00 | 0.00 | 70 | 1013.5 |
| 20260505071852 | 58 | 186 | 6.0 | 18.0 | 0.00 | 0.00 | 0.00 | 70 | 1013.4 |
| 20260505071839 | 58 | 200 | 6.0 | 20.0 | 0.00 | 0.00 | 0.00 | 69 | 1013.5 |
| 20260505071814 | 58 | 171 | 6.0 | 20.0 | 0.00 | 0.00 | 0.00 | 70 | 1013.4 |
| 20260505071644 | 58 | 200 | 6.0 | 20.0 | 0.00 | 0.00 | 0.00 | 70 | 1013.5 |
| 20260505071625 | 58 | 190 | 6.0 | 20.0 | 0.00 | 0.00 | 0.00 | 70 | 1013.6 |
| 20260505071120 | 58 | 140 | 7.0 | 18.0 | 0.00 | 0.00 | 0.00 | 70 | 1013.6 |
| 20260505071054 | 58 | 196 | 7.0 | 18.0 | 0.00 | 0.00 | 0.00 | 69 | 1013.5 |
| 20260505071043 | 58 | 171 | 7.0 | 18.0 | 0.00 | 0.00 | 0.00 | 70 | 1013.6 |
| 20260505070819 | 58 | 198 | 7.0 | 18.0 | 0.00 | 0.00 | 0.00 | 69 | 1013.6 |
| 20260505070738 | 58 | 242 | 7.0 | 18.0 | 0.00 | 0.00 | 0.00 | 69 | 1013.6 |
| 20260505070732 | 58 | 202 | 7.0 | 18.0 | 0.00 | 0.00 | 0.00 | 69 | 1013.6 |
| 20260505070722 | 58 | 194 | 7.0 | 18.0 | 0.00 | 0.00 | 0.00 | 69 | 1013.6 |
| 20260505070700 | 58 | 186 | 7.0 | 18.0 | 0.00 | 0.00 | 0.00 | 69 | 1013.6 |
| 20260505070319 | 58 | 202 | 7.0 | 18.0 | 0.00 | 0.00 | 0.00 | 69 | 1013.6 |
| 20260505070219 | 58 | 232 | 7.0 | 18.0 | 0.00 | 0.00 | 0.00 | 69 | 1013.5 |
| 20260505070106 | 58 | 200 | 7.0 | 18.0 | 0.00 | 0.00 | 0.00 | 69 | 1013.6 |
| 20260505070005 | 58 | 146 | 7.0 | 18.0 | 0.00 | 0.00 | 0.00 | 69 | 1013.6 |
| 20260505065906 | 58 | 193 | 7.0 | 18.0 | 0.00 | 0.00 | 0.00 | 69 | 1013.7 |
| 20260505065806 | 58 | 202 | 7.0 | 18.0 | 0.00 | 0.00 | 0.00 | 69 | 1013.7 |
| 20260505065736 | 58 | 182 | 7.0 | 18.0 | 0.00 | 0.00 | 0.00 | 69 | 1013.6 |
| 20260505065725 | 58 | 225 | 7.0 | 18.0 | 0.00 | 0.00 | 0.00 | 69 | 1013.7 |
| 20260505065500 | 58 | 179 | 7.0 | 18.0 | 0.00 | 0.00 | 0.00 | 69 | 1013.7 |
| 20260505065400 | 58 | 172 | 7.0 | 17.0 | 0.00 | 0.00 | 0.00 | 69 | 1013.6 |
| 20260505065336 | 59 | 273 | 7.0 | 17.0 | 0.00 | 0.00 | 0.00 | 69 | 1013.6 |
| 20260505065325 | 58 | 219 | 7.0 | 17.0 | 0.00 | 0.00 | 0.00 | 69 | 1013.7 |
| 20260505065054 | 59 | 218 | 7.0 | 16.0 | 0.00 | 0.00 | 0.00 | 69 | 1013.8 |
| 20260505065011 | 59 | 205 | 7.0 | 17.0 | 0.00 | 0.00 | 0.00 | 69 | 1013.7 |
| 20260505065007 | 59 | 199 | 7.0 | 17.0 | 0.00 | 0.00 | 0.00 | 68 | 1013.7 |
| 20260505064957 | 59 | 203 | 7.0 | 17.0 | 0.00 | 0.00 | 0.00 | 69 | 1013.7 |
| 20260505064935 | 59 | 219 | 7.0 | 17.0 | 0.00 | 0.00 | 0.00 | 69 | 1013.7 |
| 20260505064543 | 59 | 173 | 7.0 | 17.0 | 0.00 | 0.00 | 0.00 | 69 | 1013.7 |
| 20260505064443 | 59 | 175 | 7.0 | 17.0 | 0.00 | 0.00 | 0.00 | 69 | 1013.7 |
| 20260505064343 | 59 | 207 | 7.0 | 17.0 | 0.00 | 0.00 | 0.00 | 68 | 1013.8 |
| 20260505064243 | 59 | 205 | 7.0 | 17.0 | 0.00 | 0.00 | 0.00 | 69 | 1013.7 |
| 20260505064145 | 59 | 236 | 7.0 | 17.0 | 0.00 | 0.00 | 0.00 | 69 | 1013.8 |
| 20260505064114 | 59 | 174 | 7.0 | 21.0 | 0.00 | 0.00 | 0.00 | 68 | 1013.8 |
| 20260505064102 | 59 | 211 | 7.0 | 16.0 | 0.00 | 0.00 | 0.00 | 68 | 1013.8 |
| 20260505063907 | 59 | 204 | 7.0 | 21.0 | 0.00 | 0.00 | 0.00 | 68 | 1013.8 |
| 20260505063856 | 59 | 200 | 7.0 | 21.0 | 0.00 | 0.00 | 0.00 | 68 | 1013.8 |
| 20260505063637 | 59 | 209 | 7.0 | 21.0 | 0.00 | 0.00 | 0.00 | 68 | 1013.8 |
| 20260505063601 | 59 | 198 | 7.0 | 21.0 | 0.00 | 0.00 | 0.00 | 68 | 1013.8 |
| 20260505063555 | 59 | 189 | 7.0 | 21.0 | 0.00 | 0.00 | 0.00 | 68 | 1013.8 |
| 20260505063541 | 59 | 200 | 7.0 | 21.0 | 0.00 | 0.00 | 0.00 | 68 | 1013.8 |
| 20260505063517 | 59 | 200 | 7.0 | 21.0 | 0.00 | 0.00 | 0.00 | 68 | 1013.9 |
| 20260505063139 | 59 | 219 | 7.0 | 21.0 | 0.00 | 0.00 | 0.00 | 68 | 1013.8 |
| 20260505063133 | 59 | 188 | 7.0 | 15.0 | 0.00 | 0.00 | 0.00 | 68 | 1013.9 |
| 20260505063127 | 59 | 217 | 7.0 | 19.0 | 0.00 | 0.00 | 0.00 | 68 | 1013.9 |
| 20260505063121 | 59 | 228 | 7.0 | 19.0 | 0.00 | 0.00 | 0.00 | 68 | 1013.9 |
| 20260505063117 | 59 | 203 | 7.0 | 18.0 | 0.00 | 0.00 | 0.00 | 68 | 1013.9 |
| 20260505063104 | 59 | 194 | 7.0 | 21.0 | 0.00 | 0.00 | 0.00 | 68 | 1013.9 |
| 20260505063040 | 59 | 205 | 7.0 | 19.0 | 0.00 | 0.00 | 0.00 | 69 | 1013.8 |
| 20260505062918 | 59 | 226 | 7.0 | 19.0 | 0.00 | 0.00 | 0.00 | 68 | 1013.9 |
| 20260505062737 | 59 | 235 | 7.0 | 19.0 | 0.00 | 0.00 | 0.00 | 68 | 1013.9 |
| 20260505062238 | 59 | 196 | 7.0 | 16.0 | 0.00 | 0.00 | 0.00 | 68 | 1013.9 |
| 20260505062138 | 59 | 178 | 7.0 | 16.0 | 0.00 | 0.00 | 0.00 | 68 | 1013.8 |
| 20260505062037 | 59 | 190 | 7.0 | 16.0 | 0.00 | 0.00 | 0.00 | 68 | 1013.9 |
| 20260505061936 | 59 | 200 | 7.0 | 16.0 | 0.00 | 0.00 | 0.00 | 68 | 1014.0 |
| 20260505061836 | 59 | 194 | 6.0 | 16.0 | 0.00 | 0.00 | 0.00 | 68 | 1013.9 |
| 20260505061736 | 59 | 162 | 6.0 | 16.0 | 0.00 | 0.00 | 0.00 | 68 | 1013.9 |
| 20260505061638 | 59 | 204 | 6.0 | 16.0 | 0.00 | 0.00 | 0.00 | 67 | 1013.9 |
| 20260505061538 | 59 | 187 | 6.0 | 16.0 | 0.00 | 0.00 | 0.00 | 67 | 1013.9 |
| 20260505061437 | 59 | 198 | 6.0 | 16.0 | 0.00 | 0.00 | 0.00 | 67 | 1013.9 |
| 20260505061336 | 59 | 216 | 6.0 | 16.0 | 0.00 | 0.00 | 0.00 | 67 | 1013.9 |
| 20260505061237 | 59 | 142 | 6.0 | 14.0 | 0.00 | 0.00 | 0.00 | 67 | 1013.9 |
| 20260505061137 | 59 | 179 | 6.0 | 18.0 | 0.00 | 0.00 | 0.00 | 67 | 1013.9 |
| 20260505061037 | 59 | 182 | 6.0 | 18.0 | 0.00 | 0.00 | 0.00 | 67 | 1013.9 |
| 20260505060938 | 59 | 204 | 6.0 | 18.0 | 0.00 | 0.00 | 0.00 | 67 | 1014.0 |
| 20260505060914 | 59 | 216 | 6.0 | 18.0 | 0.00 | 0.00 | 0.00 | 68 | 1013.9 |
| 20260505060902 | 59 | 218 | 6.0 | 18.0 | 0.00 | 0.00 | 0.00 | 67 | 1013.9 |
| 20260505060636 | 59 | 187 | 6.0 | 18.0 | 0.00 | 0.00 | 0.00 | 67 | 1013.9 |
| 20260505060537 | 59 | 213 | 6.0 | 18.0 | 0.00 | 0.00 | 0.00 | 67 | 1013.9 |
| 20260505060438 | 59 | 129 | 6.0 | 18.0 | 0.00 | 0.00 | 0.00 | 67 | 1014.0 |
| 20260505060339 | 59 | 188 | 6.0 | 18.0 | 0.00 | 0.00 | 0.00 | 67 | 1014.0 |
| 20260505060314 | 59 | 215 | 6.0 | 17.0 | 0.00 | 0.00 | 0.00 | 67 | 1014.0 |
| 20260505060310 | 59 | 190 | 6.0 | 15.0 | 0.00 | 0.00 | 0.00 | 67 | 1013.9 |
| 20260505060256 | 59 | 215 | 6.0 | 18.0 | 0.00 | 0.00 | 0.00 | 67 | 1014.0 |
| 20260505060109 | 59 | 193 | 7.0 | 15.0 | 0.00 | 0.00 | 0.00 | 67 | 1014.0 |
| 20260505055952 | 59 | 169 | 7.0 | 17.0 | 0.00 | 0.00 | 0.00 | 68 | 1014.0 |
| 20260505055938 | 59 | 213 | 7.0 | 17.0 | 0.00 | 0.00 | 0.00 | 67 | 1014.0 |
| 20260505055916 | 59 | 196 | 7.0 | 17.0 | 0.00 | 0.00 | 0.00 | 67 | 1013.9 |
| 20260505055608 | 59 | 193 | 7.0 | 17.0 | 0.00 | 0.00 | 0.00 | 67 | 1013.9 |
| 20260505055554 | 59 | 181 | 6.0 | 17.0 | 0.00 | 0.00 | 0.00 | 67 | 1014.0 |
| 20260505055330 | 59 | 178 | 7.0 | 17.0 | 0.00 | 0.00 | 0.00 | 67 | 1014.0 |
| 20260505055230 | 59 | 204 | 7.0 | 17.0 | 0.00 | 0.00 | 0.00 | 67 | 1013.9 |
| 20260505055128 | 59 | 216 | 7.0 | 17.0 | 0.00 | 0.00 | 0.00 | 67 | 1014.0 |
| 20260505055028 | 59 | 179 | 6.0 | 17.0 | 0.00 | 0.00 | 0.00 | 67 | 1014.0 |
| 20260505054930 | 59 | 201 | 7.0 | 17.0 | 0.00 | 0.00 | 0.00 | 67 | 1014.0 |
| 20260505054830 | 59 | 207 | 6.0 | 17.0 | 0.00 | 0.00 | 0.00 | 67 | 1014.0 |
| 20260505054728 | 59 | 203 | 7.0 | 17.0 | 0.00 | 0.00 | 0.00 | 67 | 1014.0 |
| 20260505054703 | 59 | 193 | 7.0 | 17.0 | 0.00 | 0.00 | 0.00 | 66 | 1014.0 |
| 20260505054649 | 59 | 198 | 7.0 | 17.0 | 0.00 | 0.00 | 0.00 | 67 | 1014.0 |
| 20260505054506 | 60 | 192 | 7.0 | 17.0 | 0.00 | 0.00 | 0.00 | 67 | 1014.0 |
| 20260505054452 | 59 | 198 | 7.0 | 17.0 | 0.00 | 0.00 | 0.00 | 67 | 1014.0 |
| 20260505054229 | 60 | 186 | 7.0 | 17.0 | 0.00 | 0.00 | 0.00 | 66 | 1014.0 |
| 20260505054130 | 59 | 187 | 7.0 | 17.0 | 0.00 | 0.00 | 0.00 | 66 | 1014.0 |
| 20260505054031 | 60 | 201 | 7.0 | 17.0 | 0.00 | 0.00 | 0.00 | 66 | 1014.0 |
| 20260505053928 | 60 | 198 | 7.0 | 14.0 | 0.00 | 0.00 | 0.00 | 67 | 1014.0 |
| 20260505053828 | 60 | 192 | 7.0 | 14.0 | 0.00 | 0.00 | 0.00 | 66 | 1014.0 |
| 20260505053728 | 60 | 194 | 7.0 | 15.0 | 0.00 | 0.00 | 0.00 | 66 | 1013.9 |
| 20260505053631 | 60 | 204 | 7.0 | 22.0 | 0.00 | 0.00 | 0.00 | 66 | 1013.9 |
| 20260505053608 | 60 | 203 | 7.0 | 22.0 | 0.00 | 0.00 | 0.00 | 66 | 1013.9 |
| 20260505053556 | 60 | 195 | 7.0 | 22.0 | 0.00 | 0.00 | 0.00 | 66 | 1014.0 |
| 20260505053328 | 60 | 200 | 7.0 | 22.0 | 0.00 | 0.00 | 0.00 | 66 | 1013.9 |
| 20260505053229 | 60 | 203 | 7.0 | 22.0 | 0.00 | 0.00 | 0.00 | 66 | 1014.0 |
| 20260505053129 | 60 | 214 | 7.0 | 22.0 | 0.00 | 0.00 | 0.00 | 66 | 1013.9 |
| 20260505053029 | 60 | 200 | 7.0 | 22.0 | 0.00 | 0.00 | 0.00 | 66 | 1013.9 |
| 20260505052916 | 60 | 184 | 7.0 | 22.0 | 0.00 | 0.00 | 0.00 | 66 | 1013.8 |
| 20260505052848 | 60 | 190 | 7.0 | 22.0 | 0.00 | 0.00 | 0.00 | 66 | 1013.9 |
| 20260505052839 | 60 | 198 | 7.0 | 22.0 | 0.00 | 0.00 | 0.00 | 66 | 1013.9 |
| 20260505052649 | 60 | 190 | 7.0 | 18.0 | 0.00 | 0.00 | 0.00 | 66 | 1013.8 |
| 20260505052639 | 60 | 184 | 7.0 | 21.0 | 0.00 | 0.00 | 0.00 | 66 | 1014.0 |
| 20260505052416 | 60 | 178 | 7.0 | 17.0 | 0.00 | 0.00 | 0.00 | 66 | 1013.9 |
| 20260505052318 | 60 | 220 | 7.0 | 15.0 | 0.00 | 0.00 | 0.00 | 66 | 1014.0 |
| 20260505052218 | 60 | 215 | 7.0 | 15.0 | 0.00 | 0.00 | 0.00 | 66 | 1014.0 |
| 20260505052117 | 60 | 210 | 7.0 | 15.0 | 0.00 | 0.00 | 0.00 | 66 | 1013.9 |
| 20260505052019 | 60 | 202 | 7.0 | 15.0 | 0.00 | 0.00 | 0.00 | 66 | 1014.0 |
| 20260505051916 | 60 | 205 | 7.0 | 15.0 | 0.00 | 0.00 | 0.00 | 65 | 1014.0 |
| 20260505051817 | 60 | 186 | 7.0 | 15.0 | 0.00 | 0.00 | 0.00 | 66 | 1014.1 |
| 20260505051718 | 60 | 194 | 7.0 | 16.0 | 0.00 | 0.00 | 0.00 | 65 | 1013.9 |
| 20260505051618 | 60 | 200 | 7.0 | 16.0 | 0.00 | 0.00 | 0.00 | 65 | 1013.9 |
| 20260505051518 | 60 | 213 | 7.0 | 16.0 | 0.00 | 0.00 | 0.00 | 65 | 1014.0 |
| 20260505051416 | 60 | 194 | 6.0 | 16.0 | 0.00 | 0.00 | 0.00 | 65 | 1014.1 |
| 20260505051317 | 60 | 181 | 7.0 | 16.0 | 0.00 | 0.00 | 0.00 | 65 | 1014.1 |
| 20260505051251 | 60 | 194 | 6.0 | 16.0 | 0.00 | 0.00 | 0.00 | 65 | 1014.0 |
| 20260505051240 | 60 | 196 | 7.0 | 16.0 | 0.00 | 0.00 | 0.00 | 65 | 1014.0 |
| 20260505051014 | 60 | 202 | 7.0 | 16.0 | 0.00 | 0.00 | 0.00 | 65 | 1014.1 |
| 20260505050914 | 60 | 200 | 7.0 | 16.0 | 0.00 | 0.00 | 0.00 | 65 | 1014.1 |
| 20260505050815 | 60 | 200 | 7.0 | 16.0 | 0.00 | 0.00 | 0.00 | 65 | 1014.1 |
| 20260505050714 | 60 | 194 | 7.0 | 16.0 | 0.00 | 0.00 | 0.00 | 65 | 1014.0 |
| 20260505050615 | 60 | 229 | 7.0 | 16.0 | 0.00 | 0.00 | 0.00 | 65 | 1014.1 |
| 20260505050514 | 60 | 212 | 7.0 | 16.0 | 0.00 | 0.00 | 0.00 | 64 | 1014.0 |
| 20260505050412 | 60 | 204 | 7.0 | 16.0 | 0.00 | 0.00 | 0.00 | 65 | 1014.1 |
| 20260505050314 | 60 | 202 | 7.0 | 16.0 | 0.00 | 0.00 | 0.00 | 65 | 1014.0 |
| 20260505050212 | 60 | 249 | 7.0 | 15.0 | 0.00 | 0.00 | 0.00 | 65 | 1014.0 |
| 20260505050113 | 60 | 197 | 7.0 | 15.0 | 0.00 | 0.00 | 0.00 | 65 | 1014.0 |
| 20260505041712 | 61 | 212 | 6.0 | 19.0 | 0.00 | 0.00 | 0.00 | 63 | 1013.9 |
| 20260505041520 | 61 | 282 | 5.0 | 19.0 | 0.00 | 0.00 | 0.00 | 63 | 1013.8 |
| 20260505041507 | 61 | 196 | 5.0 | 19.0 | 0.00 | 0.00 | 0.00 | 63 | 1013.8 |
| 20260505041320 | 61 | 223 | 5.0 | 19.0 | 0.00 | 0.00 | 0.00 | 63 | 1013.8 |
| 20260505041307 | 61 | 193 | 5.0 | 19.0 | 0.00 | 0.00 | 0.00 | 63 | 1013.8 |
| 20260505041045 | 61 | 184 | 6.0 | 19.0 | 0.00 | 0.00 | 0.00 | 62 | 1013.8 |
| 20260505040941 | 61 | 194 | 6.0 | 19.0 | 0.00 | 0.00 | 0.00 | 62 | 1013.8 |
| 20260505040842 | 61 | 197 | 6.0 | 19.0 | 0.00 | 0.00 | 0.00 | 62 | 1013.8 |
| 20260505040742 | 61 | 203 | 6.0 | 19.0 | 0.00 | 0.00 | 0.00 | 62 | 1013.7 |
| 20260505040641 | 61 | 206 | 6.0 | 17.0 | 0.00 | 0.00 | 0.00 | 63 | 1013.8 |
| 20260505040616 | 61 | 198 | 6.0 | 17.0 | 0.00 | 0.00 | 0.00 | 62 | 1013.8 |
| 20260505040605 | 61 | 186 | 6.0 | 17.0 | 0.00 | 0.00 | 0.00 | 62 | 1013.8 |
| 20260505040340 | 61 | 182 | 6.0 | 18.0 | 0.00 | 0.00 | 0.00 | 62 | 1013.8 |
| 20260505040238 | 61 | 200 | 6.0 | 18.0 | 0.00 | 0.00 | 0.00 | 62 | 1013.8 |
| 20260505040140 | 61 | 200 | 6.0 | 18.0 | 0.00 | 0.00 | 0.00 | 62 | 1013.8 |
| 20260505040039 | 61 | 196 | 6.0 | 18.0 | 0.00 | 0.00 | 0.00 | 62 | 1013.8 |
| 20260505040009 | 61 | 203 | 6.0 | 18.0 | 0.00 | 0.00 | 0.00 | 62 | 1013.8 |
| 20260505035959 | 61 | 190 | 6.0 | 18.0 | 0.00 | 0.00 | 0.00 | 62 | 1013.8 |
| 20260505035737 | 61 | 249 | 6.0 | 18.0 | 0.00 | 0.00 | 0.00 | 62 | 1013.8 |
| 20260505035710 | 61 | 197 | 6.0 | 27.0 | 0.00 | 0.00 | 0.00 | 62 | 1013.8 |
| 20260505035658 | 61 | 206 | 6.0 | 18.0 | 0.00 | 0.00 | 0.00 | 62 | 1013.9 |
| 20260505035437 | 61 | 173 | 6.0 | 27.0 | 0.00 | 0.00 | 0.00 | 62 | 1013.9 |
| 20260505035423 | 62 | 200 | 6.0 | 27.0 | 0.00 | 0.00 | 0.00 | 62 | 1013.9 |
| 20260505035418 | 61 | 200 | 6.0 | 27.0 | 0.00 | 0.00 | 0.00 | 62 | 1013.9 |
| 20260505035405 | 61 | 220 | 6.0 | 27.0 | 0.00 | 0.00 | 0.00 | 62 | 1013.9 |
| 20260505035217 | 61 | 176 | 6.0 | 27.0 | 0.00 | 0.00 | 0.00 | 62 | 1013.9 |
| 20260505035052 | 61 | 210 | 6.0 | 27.0 | 0.00 | 0.00 | 0.00 | 62 | 1013.9 |
| 20260505034835 | 62 | 194 | 6.0 | 27.0 | 0.00 | 0.00 | 0.00 | 62 | 1013.8 |
| 20260505034733 | 62 | 184 | 6.0 | 27.0 | 0.00 | 0.00 | 0.00 | 62 | 1013.9 |
| 20260505034631 | 61 | 205 | 6.0 | 27.0 | 0.00 | 0.00 | 0.00 | 61 | 1013.8 |
| 20260505034533 | 62 | 180 | 6.0 | 15.0 | 0.00 | 0.00 | 0.00 | 62 | 1013.8 |
| 20260505034432 | 62 | 203 | 6.0 | 15.0 | 0.00 | 0.00 | 0.00 | 62 | 1013.8 |
| 20260505034331 | 62 | 199 | 6.0 | 15.0 | 0.00 | 0.00 | 0.00 | 62 | 1013.8 |
| 20260505034232 | 62 | 203 | 6.0 | 15.0 | 0.00 | 0.00 | 0.00 | 62 | 1013.8 |
| 20260505034133 | 62 | 219 | 6.0 | 14.0 | 0.00 | 0.00 | 0.00 | 62 | 1013.7 |
| 20260505034035 | 62 | 187 | 6.0 | 14.0 | 0.00 | 0.00 | 0.00 | 62 | 1013.8 |
| 20260505033931 | 62 | 163 | 6.0 | 14.0 | 0.00 | 0.00 | 0.00 | 62 | 1013.8 |
| 20260505033830 | 62 | 216 | 6.0 | 14.0 | 0.00 | 0.00 | 0.00 | 62 | 1013.8 |
| 20260505033802 | 62 | 164 | 6.0 | 14.0 | 0.00 | 0.00 | 0.00 | 62 | 1013.8 |
| 20260505033729 | 62 | 164 | 6.0 | 14.0 | 0.00 | 0.00 | 0.00 | 62 | 1013.8 |
| 20260505033629 | 62 | 161 | 6.0 | 14.0 | 0.00 | 0.00 | 0.00 | 62 | 1013.8 |
| 20260505033529 | 62 | 182 | 6.0 | 19.0 | 0.00 | 0.00 | 0.00 | 62 | 1013.8 |
| 20260505033501 | 62 | 196 | 6.0 | 19.0 | 0.00 | 0.00 | 0.00 | 62 | 1013.9 |
| 20260505033450 | 62 | 215 | 6.0 | 19.0 | 0.00 | 0.00 | 0.00 | 62 | 1013.9 |
| 20260505033242 | 62 | 191 | 6.0 | 19.0 | 0.00 | 0.00 | 0.00 | 62 | 1013.8 |
| 20260505033232 | 62 | 203 | 6.0 | 19.0 | 0.00 | 0.00 | 0.00 | 62 | 1013.8 |
| 20260505033225 | 62 | 200 | 6.0 | 19.0 | 0.00 | 0.00 | 0.00 | 61 | 1013.8 |
| 20260505033207 | 62 | 207 | 6.0 | 19.0 | 0.00 | 0.00 | 0.00 | 62 | 1013.8 |
| 20260505032901 | 62 | 198 | 6.0 | 15.0 | 0.00 | 0.00 | 0.00 | 62 | 1013.9 |
| 20260505032855 | 62 | 267 | 6.0 | 15.0 | 0.00 | 0.00 | 0.00 | 62 | 1014.1 |
| 20260505032843 | 62 | 198 | 6.0 | 19.0 | 0.00 | 0.00 | 0.00 | 61 | 1013.8 |
| 20260505032817 | 62 | 186 | 6.0 | 19.0 | 0.00 | 0.00 | 0.00 | 62 | 1013.8 |
| 20260505032654 | 62 | 225 | 6.0 | 19.0 | 0.00 | 0.00 | 0.00 | 62 | 1013.9 |
| 20260505032509 | 62 | 191 | 6.0 | 15.0 | 0.00 | 0.00 | 0.00 | 61 | 1014.0 |
| 20260505032347 | 62 | 186 | 6.0 | 15.0 | 0.00 | 0.00 | 0.00 | 62 | 1014.0 |
| 20260505032128 | 62 | 147 | 6.0 | 15.0 | 0.00 | 0.00 | 0.00 | 62 | 1013.9 |
| 20260505032058 | 62 | 194 | 6.0 | 15.0 | 0.00 | 0.00 | 0.00 | 61 | 1013.9 |
| 20260505032047 | 62 | 200 | 6.0 | 15.0 | 0.00 | 0.00 | 0.00 | 61 | 1013.9 |
| 20260505031902 | 62 | 190 | 6.0 | 14.0 | 0.00 | 0.00 | 0.00 | 61 | 1014.0 |
| 20260505031850 | 62 | 188 | 6.0 | 14.0 | 0.00 | 0.00 | 0.00 | 61 | 1014.0 |
| 20260505031625 | 62 | 65 | 6.0 | 15.0 | 0.00 | 0.00 | 0.00 | 61 | 1014.0 |
| 20260505031525 | 62 | 120 | 6.0 | 15.0 | 0.00 | 0.00 | 0.00 | 62 | 1014.1 |
| 20260505031425 | 62 | 181 | 6.0 | 15.0 | 0.00 | 0.00 | 0.00 | 62 | 1014.0 |
| 20260505031324 | 62 | 209 | 5.0 | 15.0 | 0.00 | 0.00 | 0.00 | 61 | 1014.0 |
| 20260505031225 | 62 | 198 | 5.0 | 15.0 | 0.00 | 0.00 | 0.00 | 62 | 1014.0 |
| 20260505031126 | 62 | 199 | 6.0 | 15.0 | 0.00 | 0.00 | 0.00 | 62 | 1014.0 |
| 20260505031053 | 62 | 182 | 5.0 | 15.0 | 0.00 | 0.00 | 0.00 | 61 | 1013.9 |
| 20260505031042 | 62 | 190 | 5.0 | 15.0 | 0.00 | 0.00 | 0.00 | 61 | 1013.9 |
| 20260505030820 | 62 | 202 | 6.0 | 15.0 | 0.00 | 0.00 | 0.00 | 61 | 1013.9 |
| 20260505030755 | 62 | 129 | 5.0 | 14.0 | 0.00 | 0.00 | 0.00 | 61 | 1013.9 |
| 20260505030745 | 62 | 173 | 6.0 | 15.0 | 0.00 | 0.00 | 0.00 | 61 | 1014.0 |
| 20260505030521 | 62 | 161 | 5.0 | 14.0 | 0.00 | 0.00 | 0.00 | 61 | 1014.0 |
| 20260505030420 | 62 | 143 | 5.0 | 17.0 | 0.00 | 0.00 | 0.00 | 61 | 1014.0 |
| 20260505030319 | 62 | 184 | 5.0 | 17.0 | 0.00 | 0.00 | 0.00 | 61 | 1013.9 |
| 20260505030219 | 62 | 187 | 5.0 | 17.0 | 0.00 | 0.00 | 0.00 | 61 | 1013.9 |
| 20260505030120 | 62 | 188 | 5.0 | 17.0 | 0.00 | 0.00 | 0.00 | 61 | 1013.9 |
| 20260505030020 | 62 | 191 | 5.0 | 17.0 | 0.00 | 0.00 | 0.00 | 61 | 1014.0 |
| 20260505025919 | 62 | 184 | 6.0 | 17.0 | 0.00 | 0.00 | 0.00 | 61 | 1013.9 |
| 20260505025820 | 62 | 188 | 6.0 | 17.0 | 0.00 | 0.00 | 0.00 | 61 | 1013.8 |
| 20260505025721 | 63 | 209 | 6.0 | 17.0 | 0.00 | 0.00 | 0.00 | 61 | 1013.8 |
| 20260505025619 | 63 | 106 | 6.0 | 17.0 | 0.00 | 0.00 | 0.00 | 61 | 1013.9 |
| 20260505025521 | 63 | 196 | 6.0 | 17.0 | 0.00 | 0.00 | 0.00 | 61 | 1013.9 |
| 20260505025419 | 63 | 196 | 6.0 | 16.0 | 0.00 | 0.00 | 0.00 | 61 | 1013.8 |
| 20260505025320 | 63 | 224 | 6.0 | 16.0 | 0.00 | 0.00 | 0.00 | 60 | 1013.8 |
| 20260505025219 | 63 | 195 | 6.0 | 16.0 | 0.00 | 0.00 | 0.00 | 61 | 1013.8 |
| 20260505025119 | 63 | 188 | 6.0 | 16.0 | 0.00 | 0.00 | 0.00 | 60 | 1013.9 |
| 20260505025019 | 63 | 181 | 6.0 | 16.0 | 0.00 | 0.00 | 0.00 | 61 | 1013.8 |
| 20260505024919 | 63 | 186 | 6.0 | 16.0 | 0.00 | 0.00 | 0.00 | 60 | 1013.9 |
| 20260505024853 | 63 | 178 | 6.0 | 15.0 | 0.00 | 0.00 | 0.00 | 60 | 1014.0 |
| 20260505024841 | 63 | 211 | 6.0 | 16.0 | 0.00 | 0.00 | 0.00 | 60 | 1013.9 |
| 20260505024619 | 63 | 203 | 5.0 | 15.0 | 0.00 | 0.00 | 0.00 | 60 | 1013.9 |
| 20260505024520 | 63 | 259 | 6.0 | 15.0 | 0.00 | 0.00 | 0.00 | 60 | 1013.9 |
| 20260505024420 | 63 | 222 | 5.0 | 15.0 | 0.00 | 0.00 | 0.00 | 60 | 1013.9 |
| 20260505024334 | 63 | 196 | 5.0 | 22.0 | 0.00 | 0.00 | 0.00 | 61 | 1013.9 |
| 20260505024324 | 63 | 186 | 5.0 | 15.0 | 0.00 | 0.00 | 0.00 | 61 | 1014.0 |
| 20260505024316 | 63 | 197 | 5.0 | 22.0 | 0.00 | 0.00 | 0.00 | 60 | 1014.0 |
| 20260505024257 | 63 | 218 | 5.0 | 15.0 | 0.00 | 0.00 | 0.00 | 60 | 1014.0 |
| 20260505023916 | 63 | 198 | 5.0 | 22.0 | 0.00 | 0.00 | 0.00 | 60 | 1014.0 |
| 20260505023815 | 63 | 201 | 5.0 | 22.0 | 0.00 | 0.00 | 0.00 | 60 | 1014.0 |
| 20260505023713 | 63 | 244 | 5.0 | 22.0 | 0.00 | 0.00 | 0.00 | 61 | 1014.0 |
| 20260505023608 | 63 | 196 | 5.0 | 22.0 | 0.00 | 0.00 | 0.00 | 60 | 1014.0 |
| 20260505023508 | 63 | 196 | 5.0 | 22.0 | 0.00 | 0.00 | 0.00 | 60 | 1014.0 |
| 20260505023408 | 63 | 223 | 6.0 | 22.0 | 0.00 | 0.00 | 0.00 | 60 | 1013.9 |
| 20260505023309 | 63 | 199 | 6.0 | 22.0 | 0.00 | 0.00 | 0.00 | 60 | 1014.0 |
| 20260505023233 | 63 | 273 | 6.0 | 19.0 | 0.00 | 0.00 | 0.00 | 60 | 1014.0 |
| 20260505023224 | 63 | 197 | 6.0 | 19.0 | 0.00 | 0.00 | 0.00 | 61 | 1014.0 |
| 20260505023000 | 63 | 181 | 6.0 | 19.0 | 0.00 | 0.00 | 0.00 | 60 | 1014.0 |
| 20260505022903 | 63 | 175 | 6.0 | 19.0 | 0.00 | 0.00 | 0.00 | 60 | 1014.0 |
| 20260505022802 | 63 | 202 | 5.0 | 14.0 | 0.00 | 0.00 | 0.00 | 60 | 1014.1 |
| 20260505022702 | 63 | 114 | 5.0 | 14.0 | 0.00 | 0.00 | 0.00 | 60 | 1014.1 |
| 20260505022655 | 63 | 182 | 5.0 | 14.0 | 0.00 | 0.00 | 0.00 | 60 | 1014.0 |
| 20260505022651 | 63 | 207 | 5.0 | 13.0 | 0.00 | 0.00 | 0.00 | 60 | 1014.1 |
| 20260505022628 | 63 | 183 | 5.0 | 14.0 | 0.00 | 0.00 | 0.00 | 60 | 1014.2 |
| 20260505022250 | 63 | 189 | 5.0 | 13.0 | 0.00 | 0.00 | 0.00 | 60 | 1014.1 |
| 20260505022149 | 63 | 221 | 5.0 | 13.0 | 0.00 | 0.00 | 0.00 | 60 | 1014.1 |
| 20260505022122 | 63 | 204 | 5.0 | 12.0 | 0.00 | 0.00 | 0.00 | 60 | 1014.1 |
| 20260505022112 | 63 | 184 | 5.0 | 13.0 | 0.00 | 0.00 | 0.00 | 60 | 1014.1 |
| 20260505021850 | 63 | 181 | 5.0 | 12.0 | 0.00 | 0.00 | 0.00 | 60 | 1014.1 |
| 20260505021748 | 63 | 196 | 5.0 | 12.0 | 0.00 | 0.00 | 0.00 | 60 | 1014.2 |
| 20260505021649 | 63 | 194 | 5.0 | 13.0 | 0.00 | 0.00 | 0.00 | 60 | 1014.1 |
| 20260505021549 | 63 | 277 | 4.0 | 13.0 | 0.00 | 0.00 | 0.00 | 60 | 1014.2 |
| 20260505021451 | 63 | 205 | 5.0 | 13.0 | 0.00 | 0.00 | 0.00 | 60 | 1014.2 |
| 20260505021349 | 63 | 219 | 5.0 | 13.0 | 0.00 | 0.00 | 0.00 | 60 | 1014.2 |
| 20260505021249 | 63 | 207 | 5.0 | 13.0 | 0.00 | 0.00 | 0.00 | 60 | 1014.2 |
| 20260505021149 | 63 | 204 | 5.0 | 13.0 | 0.00 | 0.00 | 0.00 | 61 | 1014.2 |
| 20260505021127 | 64 | 190 | 5.0 | 13.0 | 0.00 | 0.00 | 0.00 | 60 | 1014.2 |
| 20260505021115 | 64 | 155 | 5.0 | 13.0 | 0.00 | 0.00 | 0.00 | 60 | 1014.2 |
| 20260505020851 | 64 | 234 | 5.0 | 15.0 | 0.00 | 0.00 | 0.00 | 60 | 1014.2 |
| 20260505020750 | 64 | 108 | 5.0 | 15.0 | 0.00 | 0.00 | 0.00 | 60 | 1014.0 |
| 20260505020649 | 64 | 195 | 5.0 | 15.0 | 0.00 | 0.00 | 0.00 | 60 | 1014.1 |
| 20260505020550 | 64 | 196 | 5.0 | 15.0 | 0.00 | 0.00 | 0.00 | 59 | 1014.0 |
| 20260505020451 | 64 | 174 | 5.0 | 15.0 | 0.00 | 0.00 | 0.00 | 60 | 1014.0 |
| 20260505020349 | 64 | 175 | 5.0 | 15.0 | 0.00 | 0.00 | 0.00 | 60 | 1014.0 |
| 20260505020248 | 64 | 183 | 5.0 | 15.0 | 0.00 | 0.00 | 0.00 | 60 | 1014.0 |
| 20260505020225 | 64 | 171 | 5.0 | 15.0 | 0.00 | 0.00 | 0.00 | 60 | 1014.0 |
| 20260505020211 | 64 | 153 | 5.0 | 15.0 | 0.00 | 0.00 | 0.00 | 60 | 1014.0 |
| 20260505015947 | 64 | 194 | 5.0 | 15.0 | 0.00 | 0.00 | 0.00 | 60 | 1014.0 |
| 20260505015849 | 64 | 246 | 5.0 | 13.0 | 0.00 | 0.00 | 0.00 | 60 | 1014.0 |
| 20260505015826 | 64 | 190 | 5.0 | 13.0 | 0.00 | 0.00 | 0.00 | 60 | 1014.1 |
| 20260505015814 | 64 | 234 | 5.0 | 13.0 | 0.00 | 0.00 | 0.00 | 60 | 1014.0 |
| 20260505015545 | 64 | 199 | 5.0 | 13.0 | 0.00 | 0.00 | 0.00 | 60 | 1014.1 |
| 20260505015525 | 64 | 142 | 5.0 | 13.0 | 0.00 | 0.00 | 0.00 | 60 | 1014.0 |
| 20260505015511 | 64 | 155 | 5.0 | 13.0 | 0.00 | 0.00 | 0.00 | 59 | 1014.0 |
| 20260505015246 | 64 | 217 | 5.0 | 13.0 | 0.00 | 0.00 | 0.00 | 60 | 1014.0 |
| 20260505015209 | 64 | 211 | 5.0 | 13.0 | 0.00 | 0.00 | 0.00 | 60 | 1014.1 |
| 20260505015159 | 64 | 211 | 5.0 | 13.0 | 0.00 | 0.00 | 0.00 | 60 | 1014.0 |
| 20260505014939 | 64 | 202 | 5.0 | 13.0 | 0.00 | 0.00 | 0.00 | 60 | 1014.0 |
| 20260505014838 | 64 | 197 | 5.0 | 13.0 | 0.00 | 0.00 | 0.00 | 61 | 1014.0 |
| 20260505014739 | 64 | 176 | 5.0 | 13.0 | 0.00 | 0.00 | 0.00 | 61 | 1014.1 |
| 20260505014635 | 64 | 182 | 5.0 | 13.0 | 0.00 | 0.00 | 0.00 | 61 | 1014.0 |
| 20260505014533 | 64 | 207 | 5.0 | 13.0 | 0.00 | 0.00 | 0.00 | 60 | 1014.0 |
| 20260505014433 | 64 | 240 | 5.0 | 13.0 | 0.00 | 0.00 | 0.00 | 60 | 1014.0 |
| 20260505014335 | 64 | 132 | 5.0 | 12.0 | 0.00 | 0.00 | 0.00 | 60 | 1014.0 |
| 20260505014233 | 64 | 200 | 5.0 | 12.0 | 0.00 | 0.00 | 0.00 | 60 | 1014.1 |
| 20260505014200 | 64 | 206 | 5.0 | 12.0 | 0.00 | 0.00 | 0.00 | 60 | 1014.0 |
| 20260505014155 | 64 | 217 | 5.0 | 12.0 | 0.00 | 0.00 | 0.00 | 61 | 1014.1 |
| 20260505014149 | 64 | 223 | 5.0 | 14.0 | 0.00 | 0.00 | 0.00 | 61 | 1014.0 |
| 20260505014141 | 64 | 213 | 4.0 | 12.0 | 0.00 | 0.00 | 0.00 | 61 | 1014.1 |
| 20260505013800 | 64 | 201 | 5.0 | 14.0 | 0.00 | 0.00 | 0.00 | 62 | 1014.0 |
| 20260505013748 | 64 | 156 | 5.0 | 14.0 | 0.00 | 0.00 | 0.00 | 62 | 1014.0 |
| 20260505013525 | 64 | 171 | 5.0 | 14.0 | 0.00 | 0.00 | 0.00 | 62 | 1014.0 |
| 20260505013425 | 64 | 180 | 5.0 | 14.0 | 0.00 | 0.00 | 0.00 | 62 | 1014.0 |
| 20260505013325 | 64 | 210 | 5.0 | 14.0 | 0.00 | 0.00 | 0.00 | 62 | 1014.1 |
| 20260505013224 | 64 | 175 | 5.0 | 14.0 | 0.00 | 0.00 | 0.00 | 62 | 1014.1 |
| 20260505013125 | 64 | 217 | 5.0 | 14.0 | 0.00 | 0.00 | 0.00 | 62 | 1014.1 |
| 20260505013100 | 64 | 192 | 5.0 | 14.0 | 0.00 | 0.00 | 0.00 | 61 | 1014.1 |
| 20260505013049 | 64 | 217 | 5.0 | 14.0 | 0.00 | 0.00 | 0.00 | 62 | 1014.1 |
| 20260505012826 | 64 | 191 | 5.0 | 11.0 | 0.00 | 0.00 | 0.00 | 61 | 1014.2 |
| 20260505012736 | 64 | 196 | 4.0 | 11.0 | 0.00 | 0.00 | 0.00 | 62 | 1014.1 |
| 20260505012725 | 64 | 185 | 4.0 | 11.0 | 0.00 | 0.00 | 0.00 | 62 | 1014.1 |
| 20260505012705 | 64 | 187 | 4.0 | 11.0 | 0.00 | 0.00 | 0.00 | 61 | 1014.1 |
| 20260505012544 | 64 | 188 | 4.0 | 11.0 | 0.00 | 0.00 | 0.00 | 62 | 1014.1 |
| 20260505012320 | 64 | 200 | 4.0 | 11.0 | 0.00 | 0.00 | 0.00 | 62 | 1014.1 |
| 20260505012252 | 64 | 218 | 3.0 | 11.0 | 0.00 | 0.00 | 0.00 | 62 | 1014.1 |
| 20260505012242 | 64 | 238 | 4.0 | 11.0 | 0.00 | 0.00 | 0.00 | 62 | 1014.1 |
| 20260505012020 | 64 | 185 | 3.0 | 11.0 | 0.00 | 0.00 | 0.00 | 61 | 1014.1 |
| 20260505011914 | 64 | 237 | 3.0 | 11.0 | 0.00 | 0.00 | 0.00 | 61 | 1014.1 |
| 20260505011814 | 64 | 229 | 3.0 | 9.0 | 0.00 | 0.00 | 0.00 | 61 | 1014.1 |
| 20260505011753 | 64 | 180 | 3.0 | 9.0 | 0.00 | 0.00 | 0.00 | 61 | 1014.0 |
| 20260505011740 | 64 | 190 | 3.0 | 9.0 | 0.00 | 0.00 | 0.00 | 61 | 1014.1 |
| 20260505011514 | 64 | 202 | 3.0 | 9.0 | 0.00 | 0.00 | 0.00 | 61 | 1014.0 |
| 20260505011407 | 64 | 179 | 3.0 | 9.0 | 0.00 | 0.00 | 0.00 | 61 | 1014.1 |
| 20260505011306 | 64 | 220 | 3.0 | 9.0 | 0.00 | 0.00 | 0.00 | 60 | 1014.1 |
| 20260505011208 | 64 | 204 | 3.0 | 9.0 | 0.00 | 0.00 | 0.00 | 60 | 1014.0 |
| 20260505011106 | 64 | 200 | 3.0 | 9.0 | 0.00 | 0.00 | 0.00 | 60 | 1014.1 |
| 20260505011008 | 64 | 205 | 4.0 | 10.0 | 0.00 | 0.00 | 0.00 | 60 | 1014.0 |
| 20260505010945 | 65 | 176 | 3.0 | 10.0 | 0.00 | 0.00 | 0.00 | 60 | 1014.0 |
| 20260505010930 | 64 | 192 | 4.0 | 10.0 | 0.00 | 0.00 | 0.00 | 60 | 1014.0 |
| 20260505010733 | 64 | 210 | 4.0 | 12.0 | 0.00 | 0.00 | 0.00 | 60 | 1014.0 |
| 20260505010721 | 65 | 161 | 4.0 | 12.0 | 0.00 | 0.00 | 0.00 | 60 | 1014.0 |
| 20260505010458 | 64 | 190 | 4.0 | 12.0 | 0.00 | 0.00 | 0.00 | 60 | 1014.0 |
| 20260505010352 | 64 | 205 | 3.0 | 12.0 | 0.00 | 0.00 | 0.00 | 60 | 1014.0 |
| 20260505010253 | 65 | 208 | 3.0 | 12.0 | 0.00 | 0.00 | 0.00 | 60 | 1014.1 |
| 20260505010227 | 64 | 212 | 3.0 | 12.0 | 0.00 | 0.00 | 0.00 | 60 | 1014.0 |
| 20260505010215 | 64 | 164 | 3.0 | 12.0 | 0.00 | 0.00 | 0.00 | 60 | 1014.1 |
| 20260505005952 | 64 | 249 | 3.0 | 12.0 | 0.00 | 0.00 | 0.00 | 60 | 1014.0 |
| 20260505005844 | 64 | 170 | 3.0 | 12.0 | 0.00 | 0.00 | 0.00 | 60 | 1014.0 |
| 20260505005745 | 65 | 77 | 3.0 | 12.0 | 0.00 | 0.00 | 0.00 | 61 | 1014.0 |
| 20260505005646 | 65 | 252 | 3.0 | 9.0 | 0.00 | 0.00 | 0.00 | 61 | 1014.0 |
| 20260505005546 | 65 | 191 | 3.0 | 9.0 | 0.00 | 0.00 | 0.00 | 60 | 1014.0 |
| 20260505005446 | 65 | 198 | 3.0 | 9.0 | 0.00 | 0.00 | 0.00 | 60 | 1014.0 |
| 20260505005410 | 65 | 202 | 3.0 | 9.0 | 0.00 | 0.00 | 0.00 | 60 | 1014.0 |
| 20260505005355 | 65 | 214 | 3.0 | 9.0 | 0.00 | 0.00 | 0.00 | 61 | 1014.0 |
| 20260505005134 | 65 | 241 | 3.0 | 9.0 | 0.00 | 0.00 | 0.00 | 61 | 1014.0 |
| 20260505005034 | 65 | 250 | 3.0 | 10.0 | 0.00 | 0.00 | 0.00 | 60 | 1014.0 |
| 20260505004931 | 65 | 196 | 3.0 | 10.0 | 0.00 | 0.00 | 0.00 | 60 | 1014.0 |
| 20260505004829 | 65 | 177 | 3.0 | 10.0 | 0.00 | 0.00 | 0.00 | 60 | 1014.0 |
| 20260505004728 | 65 | 193 | 3.0 | 10.0 | 0.00 | 0.00 | 0.00 | 60 | 1014.0 |
| 20260505004626 | 65 | 193 | 3.0 | 10.0 | 0.00 | 0.00 | 0.00 | 60 | 1014.0 |
| 20260505004556 | 65 | 208 | 3.0 | 10.0 | 0.00 | 0.00 | 0.00 | 60 | 1014.1 |
| 20260505004546 | 65 | 174 | 3.0 | 10.0 | 0.00 | 0.00 | 0.00 | 60 | 1014.0 |
| 20260505004355 | 65 | 188 | 3.0 | 10.0 | 0.00 | 0.00 | 0.00 | 60 | 1014.1 |
| 20260505004343 | 65 | 243 | 3.0 | 10.0 | 0.00 | 0.00 | 0.00 | 61 | 1014.0 |
| 20260505004119 | 65 | 202 | 3.0 | 10.0 | 0.00 | 0.00 | 0.00 | 61 | 1014.0 |
| 20260505004019 | 65 | 165 | 3.0 | 9.0 | 0.00 | 0.00 | 0.00 | 61 | 1014.1 |
| 20260505003920 | 65 | 212 | 3.0 | 9.0 | 0.00 | 0.00 | 0.00 | 61 | 1014.1 |
| 20260505003814 | 65 | 182 | 3.0 | 8.0 | 0.00 | 0.00 | 0.00 | 61 | 1014.1 |
| 20260505003714 | 65 | 207 | 3.0 | 8.0 | 0.00 | 0.00 | 0.00 | 61 | 1014.0 |
| 20260505003610 | 65 | 201 | 3.0 | 8.0 | 0.00 | 0.00 | 0.00 | 61 | 1014.1 |
| 20260505003512 | 65 | 205 | 3.0 | 8.0 | 0.00 | 0.00 | 0.00 | 61 | 1014.1 |
| 20260505003411 | 65 | 98 | 3.0 | 8.0 | 0.00 | 0.00 | 0.00 | 61 | 1014.0 |
| 20260505003311 | 65 | 200 | 3.0 | 8.0 | 0.00 | 0.00 | 0.00 | 60 | 1014.0 |
| 20260505003211 | 65 | 210 | 3.0 | 8.0 | 0.00 | 0.00 | 0.00 | 60 | 1014.0 |
| 20260505003110 | 65 | 205 | 3.0 | 8.0 | 0.00 | 0.00 | 0.00 | 60 | 1014.0 |
| 20260505003010 | 65 | 208 | 3.0 | 8.0 | 0.00 | 0.00 | 0.00 | 61 | 1014.0 |
| 20260505002948 | 65 | 203 | 2.0 | 8.0 | 0.00 | 0.00 | 0.00 | 60 | 1014.0 |
| 20260505002944 | 65 | 213 | 3.0 | 10.0 | 0.00 | 0.00 | 0.00 | 59 | 1014.0 |
| 20260505002938 | 65 | 211 | 3.0 | 11.0 | 0.00 | 0.00 | 0.00 | 59 | 1014.0 |
| 20260505002933 | 65 | 273 | 3.0 | 11.0 | 0.00 | 0.00 | 0.00 | 60 | 1014.0 |
| 20260505002928 | 65 | 171 | 3.0 | 11.0 | 0.00 | 0.00 | 0.00 | 59 | 1014.0 |
| 20260505002922 | 66 | 190 | 3.0 | 11.0 | 0.00 | 0.00 | 0.00 | 60 | 1014.1 |
| 20260505002912 | 65 | 215 | 3.0 | 8.0 | 0.00 | 0.00 | 0.00 | 60 | 1014.0 |
| 20260505002851 | 65 | 229 | 3.0 | 8.0 | 0.00 | 0.00 | 0.00 | 60 | 1014.0 |
| 20260505002709 | 65 | 245 | 2.0 | 8.0 | 0.00 | 0.00 | 0.00 | 60 | 1014.0 |
| 20260505002412 | 65 | 217 | 3.0 | 11.0 | 0.00 | 0.00 | 0.00 | 60 | 1014.0 |
| 20260505001908 | 66 | 208 | 3.0 | 11.0 | 0.00 | 0.00 | 0.00 | 59 | 1013.9 |
| 20260505001835 | 66 | 184 | 3.0 | 11.0 | 0.00 | 0.00 | 0.00 | 59 | 1014.0 |
| 20260505001826 | 66 | 194 | 3.0 | 11.0 | 0.00 | 0.00 | 0.00 | 59 | 1014.0 |
| 20260505001606 | 66 | 145 | 3.0 | 11.0 | 0.00 | 0.00 | 0.00 | 59 | 1014.0 |
| 20260505001505 | 66 | 178 | 3.0 | 11.0 | 0.00 | 0.00 | 0.00 | 59 | 1014.0 |
| 20260505001405 | 66 | 239 | 3.0 | 11.0 | 0.00 | 0.00 | 0.00 | 59 | 1014.0 |
| 20260505001306 | 66 | 188 | 4.0 | 16.0 | 0.00 | 0.00 | 0.00 | 59 | 1014.0 |
| 20260505001237 | 66 | 207 | 4.0 | 16.0 | 0.00 | 0.00 | 0.00 | 59 | 1014.0 |
| 20260505001227 | 66 | 228 | 4.0 | 16.0 | 0.00 | 0.00 | 0.00 | 59 | 1014.0 |
| 20260505001003 | 66 | 160 | 4.0 | 16.0 | 0.00 | 0.00 | 0.00 | 58 | 1014.0 |
| 20260505000902 | 66 | 219 | 4.0 | 16.0 | 0.00 | 0.00 | 0.00 | 58 | 1014.0 |
| 20260505000804 | 66 | 193 | 4.0 | 16.0 | 0.00 | 0.00 | 0.00 | 58 | 1013.9 |
| 20260505000704 | 66 | 229 | 3.0 | 16.0 | 0.00 | 0.00 | 0.00 | 58 | 1013.9 |
| 20260505000632 | 66 | 166 | 3.0 | 16.0 | 0.00 | 0.00 | 0.00 | 58 | 1013.9 |
| 20260505000622 | 66 | 233 | 4.0 | 16.0 | 0.00 | 0.00 | 0.00 | 58 | 1013.9 |
| 20260505000358 | 66 | 242 | 3.0 | 16.0 | 0.00 | 0.00 | 0.00 | 58 | 1013.9 |
| 20260505000257 | 66 | 240 | 3.0 | 12.0 | 0.00 | 0.00 | 0.00 | 59 | 1013.9 |
| 20260505000156 | 66 | 224 | 3.0 | 12.0 | 0.00 | 0.00 | 0.00 | 59 | 1013.9 |
| 20260505000057 | 66 | 215 | 3.0 | 12.0 | 0.00 | 0.00 | 0.00 | 58 | 1014.0 |
| 20260504235957 | 66 | 232 | 3.0 | 12.0 | 0.00 | 0.00 | 0.00 | 58 | 1013.9 |
| 20260504235857 | 66 | 236 | 3.0 | 12.0 | 0.00 | 0.00 | 0.00 | 58 | 1013.9 |
| 20260504235757 | 66 | 160 | 3.0 | 12.0 | 0.00 | 0.00 | 0.00 | 58 | 1013.9 |
| 20260504235656 | 66 | 205 | 3.0 | 12.0 | 0.00 | 0.00 | 0.00 | 58 | 1013.9 |
| 20260504235557 | 67 | 228 | 3.0 | 12.0 | 0.00 | 0.00 | 0.00 | 58 | 1013.9 |
| 20260504235457 | 67 | 178 | 3.0 | 12.0 | 0.00 | 0.00 | 0.00 | 57 | 1014.0 |
| 20260504235358 | 67 | 211 | 3.0 | 12.0 | 0.00 | 0.00 | 0.00 | 57 | 1014.0 |
| 20260504235326 | 67 | 213 | 3.0 | 11.0 | 0.00 | 0.00 | 0.00 | 58 | 1013.9 |
| 20260504235315 | 67 | 219 | 3.0 | 12.0 | 0.00 | 0.00 | 0.00 | 58 | 1013.9 |
| 20260504235053 | 67 | 215 | 3.0 | 11.0 | 0.00 | 0.00 | 0.00 | 57 | 1013.8 |
| 20260504234952 | 67 | 193 | 3.0 | 12.0 | 0.00 | 0.00 | 0.00 | 57 | 1013.9 |
| 20260504234853 | 67 | 188 | 4.0 | 12.0 | 0.00 | 0.00 | 0.00 | 57 | 1014.0 |
| 20260504234753 | 67 | 237 | 4.0 | 12.0 | 0.00 | 0.00 | 0.00 | 56 | 1013.9 |
| 20260504234655 | 67 | 175 | 4.0 | 16.0 | 0.00 | 0.00 | 0.00 | 56 | 1013.9 |
| 20260504234552 | 67 | 202 | 5.0 | 16.0 | 0.00 | 0.00 | 0.00 | 56 | 1013.9 |
| 20260504234453 | 67 | 227 | 4.0 | 16.0 | 0.00 | 0.00 | 0.00 | 56 | 1013.9 |
| 20260504234353 | 67 | 186 | 4.0 | 16.0 | 0.00 | 0.00 | 0.00 | 56 | 1014.0 |
| 20260504234253 | 67 | 306 | 5.0 | 16.0 | 0.00 | 0.00 | 0.00 | 56 | 1014.0 |
| 20260504234155 | 67 | 290 | 5.0 | 16.0 | 0.00 | 0.00 | 0.00 | 56 | 1014.0 |
| 20260504234052 | 67 | 204 | 5.0 | 16.0 | 0.00 | 0.00 | 0.00 | 56 | 1014.0 |
| 20260504233954 | 67 | 196 | 5.0 | 16.0 | 0.00 | 0.00 | 0.00 | 56 | 1014.0 |
| 20260504233852 | 67 | 184 | 5.0 | 16.0 | 0.00 | 0.00 | 0.00 | 56 | 1014.1 |
| 20260504233753 | 67 | 202 | 5.0 | 16.0 | 0.00 | 0.00 | 0.00 | 56 | 1014.0 |
| 20260504233653 | 67 | 198 | 4.0 | 13.0 | 0.00 | 0.00 | 0.00 | 56 | 1014.0 |
| 20260504233552 | 67 | 181 | 4.0 | 13.0 | 0.00 | 0.00 | 0.00 | 56 | 1014.0 |
| 20260504233453 | 67 | 209 | 5.0 | 13.0 | 0.00 | 0.00 | 0.00 | 55 | 1013.9 |
| 20260504233352 | 67 | 199 | 4.0 | 13.0 | 0.00 | 0.00 | 0.00 | 55 | 1014.0 |
| 20260504233254 | 68 | 167 | 4.0 | 13.0 | 0.00 | 0.00 | 0.00 | 56 | 1013.9 |
| 20260504233154 | 68 | 179 | 4.0 | 13.0 | 0.00 | 0.00 | 0.00 | 56 | 1013.9 |
| 20260504233146 | 68 | 194 | 3.0 | 13.0 | 0.00 | 0.00 | 0.00 | 55 | 1014.0 |
| 20260504233140 | 68 | 198 | 4.0 | 13.0 | 0.00 | 0.00 | 0.00 | 55 | 1014.0 |
| 20260504233127 | 68 | 211 | 4.0 | 13.0 | 0.00 | 0.00 | 0.00 | 56 | 1013.9 |
| 20260504233110 | 68 | 198 | 4.0 | 13.0 | 0.00 | 0.00 | 0.00 | 54 | 1014.0 |
| 20260504232825 | 68 | 160 | 3.0 | 13.0 | 0.00 | 0.00 | 0.00 | 55 | 1013.9 |
| 20260504232706 | 69 | 202 | 3.0 | 10.0 | 0.00 | 0.00 | 0.00 | 55 | 1014.0 |
| 20260504232654 | 68 | 235 | 3.0 | 13.0 | 0.00 | 0.00 | 0.00 | 55 | 1013.9 |
| 20260504232632 | 68 | 248 | 3.0 | 13.0 | 0.00 | 0.00 | 0.00 | 55 | 1013.9 |
| 20260504232247 | 69 | 217 | 3.0 | 10.0 | 0.00 | 0.00 | 0.00 | 55 | 1013.9 |
| 20260504232144 | 69 | 226 | 3.0 | 10.0 | 0.00 | 0.00 | 0.00 | 54 | 1014.0 |
| 20260504232046 | 69 | 189 | 3.0 | 10.0 | 0.00 | 0.00 | 0.00 | 55 | 1013.9 |
| 20260504232023 | 69 | 219 | 3.0 | 13.0 | 0.00 | 0.00 | 0.00 | 53 | 1013.9 |
| 20260504232010 | 69 | 128 | 3.0 | 10.0 | 0.00 | 0.00 | 0.00 | 55 | 1013.9 |
| 20260504231744 | 69 | 168 | 3.0 | 13.0 | 0.00 | 0.00 | 0.00 | 53 | 1013.9 |
| 20260504231714 | 69 | 199 | 3.0 | 13.0 | 0.00 | 0.00 | 0.00 | 54 | 1013.8 |
| 20260504231704 | 69 | 215 | 3.0 | 13.0 | 0.00 | 0.00 | 0.00 | 53 | 1013.8 |
| 20260504231445 | 69 | 184 | 3.0 | 13.0 | 0.00 | 0.00 | 0.00 | 55 | 1013.8 |
| 20260504231343 | 69 | 238 | 3.0 | 13.0 | 0.00 | 0.00 | 0.00 | 54 | 1013.9 |
| 20260504231243 | 69 | 236 | 3.0 | 13.0 | 0.00 | 0.00 | 0.00 | 55 | 1014.0 |
| 20260504231144 | 69 | 103 | 3.0 | 13.0 | 0.00 | 0.00 | 0.00 | 55 | 1014.0 |
| 20260504231110 | 69 | 229 | 3.0 | 13.0 | 0.00 | 0.00 | 0.00 | 54 | 1013.9 |
| 20260504231101 | 69 | 315 | 3.0 | 13.0 | 0.00 | 0.00 | 0.00 | 55 | 1013.9 |
| 20260504230840 | 69 | 204 | 3.0 | 12.0 | 0.00 | 0.00 | 0.00 | 55 | 1013.9 |
| 20260504230741 | 69 | 160 | 3.0 | 12.0 | 0.00 | 0.00 | 0.00 | 55 | 1013.9 |
| 20260504230643 | 69 | 78 | 3.0 | 12.0 | 0.00 | 0.00 | 0.00 | 55 | 1013.9 |
| 20260504230539 | 69 | 200 | 4.0 | 12.0 | 0.00 | 0.00 | 0.00 | 55 | 1013.9 |
| 20260504230438 | 69 | 215 | 4.0 | 12.0 | 0.00 | 0.00 | 0.00 | 54 | 1013.9 |
| 20260504230338 | 69 | 164 | 4.0 | 12.0 | 0.00 | 0.00 | 0.00 | 54 | 1013.8 |
| 20260504230239 | 69 | 171 | 4.0 | 17.0 | 0.00 | 0.00 | 0.00 | 54 | 1013.9 |
| 20260504230139 | 69 | 242 | 4.0 | 17.0 | 0.00 | 0.00 | 0.00 | 53 | 1013.8 |
| 20260504230040 | 69 | 167 | 4.0 | 17.0 | 0.00 | 0.00 | 0.00 | 54 | 1013.8 |
| 20260504225938 | 69 | 222 | 4.0 | 17.0 | 0.00 | 0.00 | 0.00 | 54 | 1013.8 |
| 20260504225840 | 70 | 254 | 4.0 | 17.0 | 0.00 | 0.00 | 0.00 | 53 | 1014.0 |
| 20260504225738 | 70 | 188 | 4.0 | 17.0 | 0.00 | 0.00 | 0.00 | 53 | 1013.9 |
| 20260504225639 | 70 | 191 | 5.0 | 17.0 | 0.00 | 0.00 | 0.00 | 53 | 1013.9 |
| 20260504225539 | 70 | 202 | 5.0 | 17.0 | 0.00 | 0.00 | 0.00 | 52 | 1013.9 |
| 20260504225438 | 70 | 221 | 5.0 | 17.0 | 0.00 | 0.00 | 0.00 | 53 | 1013.9 |
| 20260504225340 | 70 | 303 | 5.0 | 17.0 | 0.00 | 0.00 | 0.00 | 52 | 1013.9 |
| 20260504225241 | 70 | 184 | 5.0 | 19.0 | 0.00 | 0.00 | 0.00 | 52 | 1013.9 |
| 20260504225126 | 70 | 232 | 5.0 | 19.0 | 0.00 | 0.00 | 0.00 | 51 | 1013.9 |
| 20260504225028 | 70 | 219 | 5.0 | 19.0 | 0.00 | 0.00 | 0.00 | 51 | 1013.9 |
| 20260504224927 | 70 | 198 | 5.0 | 19.0 | 0.00 | 0.00 | 0.00 | 52 | 1013.9 |
| 20260504224827 | 70 | 207 | 5.0 | 19.0 | 0.00 | 0.00 | 0.00 | 52 | 1013.9 |
| 20260504224726 | 70 | 204 | 5.0 | 19.0 | 0.00 | 0.00 | 0.00 | 51 | 1013.9 |
| 20260504224628 | 70 | 218 | 5.0 | 19.0 | 0.00 | 0.00 | 0.00 | 52 | 1013.8 |
| 20260504224526 | 70 | 234 | 5.0 | 19.0 | 0.00 | 0.00 | 0.00 | 53 | 1013.9 |
| 20260504224426 | 70 | 158 | 5.0 | 19.0 | 0.00 | 0.00 | 0.00 | 53 | 1013.9 |
| 20260504224327 | 70 | 209 | 5.0 | 19.0 | 0.00 | 0.00 | 0.00 | 52 | 1013.8 |
| 20260504224226 | 70 | 145 | 5.0 | 19.0 | 0.00 | 0.00 | 0.00 | 52 | 1013.9 |
| 20260504224127 | 70 | 270 | 5.0 | 19.0 | 0.00 | 0.00 | 0.00 | 53 | 1013.9 |
| 20260504224026 | 70 | 231 | 5.0 | 19.0 | 0.00 | 0.00 | 0.00 | 52 | 1013.9 |
| 20260504223926 | 70 | 167 | 5.0 | 16.0 | 0.00 | 0.00 | 0.00 | 54 | 1013.8 |
| 20260504223828 | 70 | 185 | 5.0 | 16.0 | 0.00 | 0.00 | 0.00 | 53 | 1013.9 |
| 20260504223726 | 70 | 181 | 5.0 | 16.0 | 0.00 | 0.00 | 0.00 | 52 | 1013.9 |
| 20260504223628 | 70 | 180 | 4.0 | 16.0 | 0.00 | 0.00 | 0.00 | 53 | 1014.0 |
| 20260504223528 | 70 | 204 | 4.0 | 16.0 | 0.00 | 0.00 | 0.00 | 54 | 1013.9 |
| 20260504223428 | 70 | 209 | 4.0 | 16.0 | 0.00 | 0.00 | 0.00 | 54 | 1014.0 |
| 20260504223357 | 70 | 183 | 4.0 | 16.0 | 0.00 | 0.00 | 0.00 | 54 | 1013.9 |
| 20260504223347 | 70 | 215 | 4.0 | 16.0 | 0.00 | 0.00 | 0.00 | 53 | 1013.9 |
| 20260504223128 | 70 | 245 | 4.0 | 16.0 | 0.00 | 0.00 | 0.00 | 55 | 1013.9 |
| 20260504223027 | 70 | 209 | 4.0 | 12.0 | 0.00 | 0.00 | 0.00 | 55 | 1014.0 |
| 20260504222927 | 70 | 198 | 4.0 | 12.0 | 0.00 | 0.00 | 0.00 | 56 | 1013.9 |
| 20260504222826 | 70 | 251 | 4.0 | 12.0 | 0.00 | 0.00 | 0.00 | 56 | 1013.9 |
| 20260504222810 | 70 | 198 | 5.0 | 16.0 | 0.00 | 0.00 | 0.00 | 54 | 1014.0 |
| 20260504222754 | 70 | 254 | 4.0 | 14.0 | 0.00 | 0.00 | 0.00 | 55 | 1014.0 |
| 20260504222627 | 70 | 279 | 4.0 | 14.0 | 0.00 | 0.00 | 0.00 | 54 | 1014.0 |
| 20260504222621 | 70 | 188 | 5.0 | 16.0 | 0.00 | 0.00 | 0.00 | 54 | 1014.0 |
| 20260504222601 | 70 | 211 | 5.0 | 16.0 | 0.00 | 0.00 | 0.00 | 54 | 1014.0 |
| 20260504222224 | 70 | 208 | 5.0 | 16.0 | 0.00 | 0.00 | 0.00 | 54 | 1013.9 |
| 20260504222122 | 70 | 215 | 5.0 | 16.0 | 0.00 | 0.00 | 0.00 | 55 | 1014.0 |
| 20260504222022 | 70 | 169 | 5.0 | 16.0 | 0.00 | 0.00 | 0.00 | 55 | 1014.0 |
| 20260504221955 | 71 | 175 | 5.0 | 16.0 | 0.00 | 0.00 | 0.00 | 54 | 1013.9 |
| 20260504221944 | 70 | 246 | 5.0 | 16.0 | 0.00 | 0.00 | 0.00 | 55 | 1014.0 |
| 20260504221720 | 71 | 186 | 5.0 | 16.0 | 0.00 | 0.00 | 0.00 | 54 | 1013.9 |
| 20260504221630 | 71 | 222 | 4.0 | 16.0 | 0.00 | 0.00 | 0.00 | 55 | 1013.9 |
| 20260504221518 | 71 | 188 | 4.0 | 15.0 | 0.00 | 0.00 | 0.00 | 54 | 1013.9 |
| 20260504221418 | 71 | 232 | 4.0 | 15.0 | 0.00 | 0.00 | 0.00 | 55 | 1014.0 |
| 20260504221318 | 71 | 342 | 4.0 | 15.0 | 0.00 | 0.00 | 0.00 | 54 | 1014.1 |
| 20260504221218 | 71 | 301 | 3.0 | 14.0 | 0.00 | 0.00 | 0.00 | 53 | 1014.1 |
| 20260504221119 | 71 | 188 | 4.0 | 14.0 | 0.00 | 0.00 | 0.00 | 54 | 1014.1 |
| 20260504221019 | 71 | 271 | 4.0 | 14.0 | 0.00 | 0.00 | 0.00 | 54 | 1014.1 |
| 20260504220920 | 71 | 189 | 3.0 | 14.0 | 0.00 | 0.00 | 0.00 | 52 | 1014.0 |
| 20260504220819 | 71 | 168 | 3.0 | 13.0 | 0.00 | 0.00 | 0.00 | 53 | 1014.1 |
| 20260504220719 | 72 | 158 | 3.0 | 13.0 | 0.00 | 0.00 | 0.00 | 53 | 1014.1 |
| 20260504220654 | 72 | 111 | 3.0 | 13.0 | 0.00 | 0.00 | 0.00 | 55 | 1014.1 |
| 20260504220642 | 72 | 123 | 3.0 | 13.0 | 0.00 | 0.00 | 0.00 | 54 | 1014.1 |
| 20260504220447 | 71 | 235 | 4.0 | 13.0 | 0.00 | 0.00 | 0.00 | 54 | 1014.0 |
| 20260504220441 | 71 | 260 | 4.0 | 13.0 | 0.00 | 0.00 | 0.00 | 54 | 1014.0 |
| 20260504220428 | 72 | 44 | 3.0 | 13.0 | 0.00 | 0.00 | 0.00 | 54 | 1014.0 |
| 20260504220408 | 72 | 168 | 4.0 | 13.0 | 0.00 | 0.00 | 0.00 | 54 | 1014.0 |
| 20260504220018 | 71 | 183 | 4.0 | 13.0 | 0.00 | 0.00 | 0.00 | 53 | 1014.1 |
| 20260504215918 | 71 | 143 | 4.0 | 13.0 | 0.00 | 0.00 | 0.00 | 53 | 1014.2 |
| 20260504215820 | 71 | 172 | 4.0 | 13.0 | 0.00 | 0.00 | 0.00 | 53 | 1014.0 |
| 20260504215751 | 72 | 146 | 5.0 | 13.0 | 0.00 | 0.00 | 0.00 | 51 | 1013.9 |
| 20260504215740 | 71 | 155 | 4.0 | 13.0 | 0.00 | 0.00 | 0.00 | 51 | 1014.1 |
| 20260504215518 | 72 | 180 | 5.0 | 13.0 | 0.00 | 0.00 | 0.00 | 52 | 1014.0 |
| 20260504215436 | 72 | 200 | 4.0 | 13.0 | 0.00 | 0.00 | 0.00 | 52 | 1014.0 |
| 20260504215431 | 72 | 146 | 4.0 | 13.0 | 0.00 | 0.00 | 0.00 | 53 | 1013.9 |
| 20260504215420 | 72 | 197 | 5.0 | 13.0 | 0.00 | 0.00 | 0.00 | 51 | 1013.9 |
| 20260504215352 | 72 | 134 | 4.0 | 13.0 | 0.00 | 0.00 | 0.00 | 52 | 1013.9 |
| 20260504215014 | 72 | 220 | 4.0 | 13.0 | 0.00 | 0.00 | 0.00 | 51 | 1013.9 |
| 20260504214957 | 72 | 211 | 4.0 | 13.0 | 0.00 | 0.00 | 0.00 | 53 | 1013.9 |
| 20260504214945 | 72 | 44 | 4.0 | 13.0 | 0.00 | 0.00 | 0.00 | 52 | 1013.9 |
| 20260504214716 | 72 | 189 | 4.0 | 13.0 | 0.00 | 0.00 | 0.00 | 55 | 1013.9 |
| 20260504214615 | 72 | 223 | 4.0 | 15.0 | 0.00 | 0.00 | 0.00 | 54 | 1013.9 |
| 20260504214542 | 72 | 101 | 4.0 | 16.0 | 0.00 | 0.00 | 0.00 | 54 | 1013.9 |
| 20260504214531 | 72 | 137 | 4.0 | 16.0 | 0.00 | 0.00 | 0.00 | 54 | 1014.0 |
| 20260504214308 | 72 | 163 | 4.0 | 16.0 | 0.00 | 0.00 | 0.00 | 54 | 1013.9 |
| 20260504214208 | 72 | 162 | 5.0 | 16.0 | 0.00 | 0.00 | 0.00 | 54 | 1013.9 |
| 20260504214112 | 72 | 186 | 5.0 | 16.0 | 0.00 | 0.00 | 0.00 | 53 | 1013.9 |
| 20260504214050 | 72 | 225 | 5.0 | 16.0 | 0.00 | 0.00 | 0.00 | 51 | 1013.9 |
| 20260504214035 | 72 | 209 | 5.0 | 16.0 | 0.00 | 0.00 | 0.00 | 51 | 1013.9 |
| 20260504213832 | 72 | 220 | 5.0 | 16.0 | 0.00 | 0.00 | 0.00 | 50 | 1013.9 |
| 20260504213822 | 72 | 251 | 5.0 | 16.0 | 0.00 | 0.00 | 0.00 | 50 | 1013.9 |
| 20260504213601 | 72 | 210 | 4.0 | 16.0 | 0.00 | 0.00 | 0.00 | 49 | 1014.0 |
| 20260504213452 | 73 | 199 | 4.0 | 16.0 | 0.00 | 0.00 | 0.00 | 50 | 1013.9 |
| 20260504213424 | 73 | 219 | 3.0 | 13.0 | 0.00 | 0.00 | 0.00 | 51 | 1013.9 |
| 20260504213414 | 73 | 214 | 3.0 | 15.0 | 0.00 | 0.00 | 0.00 | 51 | 1014.0 |
| 20260504213152 | 73 | 180 | 3.0 | 13.0 | 0.00 | 0.00 | 0.00 | 52 | 1014.0 |
| 20260504213051 | 73 | 346 | 3.0 | 13.0 | 0.00 | 0.00 | 0.00 | 51 | 1013.9 |
| 20260504212946 | 73 | 217 | 3.0 | 13.0 | 0.00 | 0.00 | 0.00 | 52 | 1013.8 |
| 20260504212911 | 73 | 229 | 4.0 | 17.0 | 0.00 | 0.00 | 0.00 | 53 | 1013.9 |
| 20260504212857 | 73 | 321 | 3.0 | 13.0 | 0.00 | 0.00 | 0.00 | 54 | 1013.9 |
| 20260504212831 | 73 | 147 | 4.0 | 13.0 | 0.00 | 0.00 | 0.00 | 53 | 1013.9 |
| 20260504212708 | 73 | 174 | 4.0 | 17.0 | 0.00 | 0.00 | 0.00 | 54 | 1013.9 |
| 20260504212438 | 73 | 286 | 4.0 | 17.0 | 0.00 | 0.00 | 0.00 | 54 | 1013.9 |
| 20260504212411 | 73 | 188 | 5.0 | 17.0 | 0.00 | 0.00 | 0.00 | 51 | 1013.8 |
| 20260504212400 | 73 | 180 | 5.0 | 17.0 | 0.00 | 0.00 | 0.00 | 54 | 1013.9 |
| 20260504212139 | 73 | 171 | 5.0 | 17.0 | 0.00 | 0.00 | 0.00 | 52 | 1013.9 |
| 20260504212038 | 73 | 232 | 5.0 | 17.0 | 0.00 | 0.00 | 0.00 | 52 | 1013.8 |
| 20260504211928 | 72 | 112 | 6.0 | 17.0 | 0.00 | 0.00 | 0.00 | 52 | 1013.9 |
| 20260504211857 | 72 | 203 | 5.0 | 17.0 | 0.00 | 0.00 | 0.00 | 52 | 1013.8 |
| 20260504211847 | 72 | 219 | 6.0 | 17.0 | 0.00 | 0.00 | 0.00 | 52 | 1013.9 |
| 20260504211626 | 72 | 232 | 6.0 | 15.0 | 0.00 | 0.00 | 0.00 | 51 | 1013.9 |
| 20260504211540 | 72 | 177 | 5.0 | 15.0 | 0.00 | 0.00 | 0.00 | 50 | 1013.9 |
| 20260504211534 | 72 | 200 | 6.0 | 15.0 | 0.00 | 0.00 | 0.00 | 50 | 1013.9 |
| 20260504211525 | 72 | 59 | 5.0 | 15.0 | 0.00 | 0.00 | 0.00 | 52 | 1013.8 |
| 20260504211502 | 72 | 210 | 6.0 | 15.0 | 0.00 | 0.00 | 0.00 | 51 | 1013.7 |
| 20260504211118 | 72 | 226 | 6.0 | 15.0 | 0.00 | 0.00 | 0.00 | 50 | 1013.8 |
| 20260504211019 | 72 | 200 | 6.0 | 19.0 | 0.00 | 0.00 | 0.00 | 50 | 1013.8 |
| 20260504210914 | 72 | 242 | 5.0 | 19.0 | 0.00 | 0.00 | 0.00 | 52 | 1013.8 |
| 20260504210850 | 72 | 200 | 5.0 | 19.0 | 0.00 | 0.00 | 0.00 | 51 | 1013.8 |
| 20260504210838 | 72 | 171 | 5.0 | 19.0 | 0.00 | 0.00 | 0.00 | 52 | 1013.8 |
| 20260504210615 | 72 | 101 | 5.0 | 19.0 | 0.00 | 0.00 | 0.00 | 50 | 1013.9 |
| 20260504210513 | 72 | 211 | 6.0 | 19.0 | 0.00 | 0.00 | 0.00 | 50 | 1013.9 |
| 20260504210402 | 73 | 182 | 5.0 | 19.0 | 0.00 | 0.00 | 0.00 | 49 | 1013.9 |
| 20260504210303 | 73 | 126 | 5.0 | 19.0 | 0.00 | 0.00 | 0.00 | 49 | 1013.9 |
| 20260504210204 | 73 | 196 | 5.0 | 19.0 | 0.00 | 0.00 | 0.00 | 52 | 1013.9 |
| 20260504210104 | 73 | 167 | 4.0 | 19.0 | 0.00 | 0.00 | 0.00 | 51 | 1014.0 |
| 20260504210004 | 73 | 228 | 4.0 | 15.0 | 0.00 | 0.00 | 0.00 | 50 | 1013.8 |
| 20260504205857 | 73 | 202 | 4.0 | 15.0 | 0.00 | 0.00 | 0.00 | 50 | 1013.9 |
| 20260504205757 | 73 | 175 | 4.0 | 15.0 | 0.00 | 0.00 | 0.00 | 52 | 1013.8 |
| 20260504205657 | 73 | 182 | 4.0 | 14.0 | 0.00 | 0.00 | 0.00 | 52 | 1013.9 |
| 20260504205556 | 73 | 178 | 4.0 | 12.0 | 0.00 | 0.00 | 0.00 | 52 | 1013.9 |
| 20260504205456 | 73 | 276 | 4.0 | 12.0 | 0.00 | 0.00 | 0.00 | 51 | 1013.9 |
| 20260504205350 | 73 | 218 | 4.0 | 12.0 | 0.00 | 0.00 | 0.00 | 53 | 1014.0 |
| 20260504205250 | 73 | 241 | 4.0 | 17.0 | 0.00 | 0.00 | 0.00 | 52 | 1013.9 |
| 20260504205152 | 73 | 332 | 4.0 | 17.0 | 0.00 | 0.00 | 0.00 | 50 | 1014.1 |
| 20260504205051 | 73 | 193 | 4.0 | 17.0 | 0.00 | 0.00 | 0.00 | 52 | 1014.1 |
| 20260504204950 | 73 | 221 | 4.0 | 17.0 | 0.00 | 0.00 | 0.00 | 52 | 1014.1 |
| 20260504204840 | 73 | 161 | 4.0 | 17.0 | 0.00 | 0.00 | 0.00 | 51 | 1014.2 |
| 20260504204740 | 73 | 216 | 4.0 | 17.0 | 0.00 | 0.00 | 0.00 | 50 | 1014.2 |
| 20260504204640 | 73 | 211 | 4.0 | 17.0 | 0.00 | 0.00 | 0.00 | 51 | 1014.3 |
| 20260504204541 | 74 | 93 | 4.0 | 17.0 | 0.00 | 0.00 | 0.00 | 50 | 1014.3 |
| 20260504204442 | 74 | 135 | 3.0 | 17.0 | 0.00 | 0.00 | 0.00 | 50 | 1014.2 |
| 20260504204339 | 74 | 194 | 3.0 | 17.0 | 0.00 | 0.00 | 0.00 | 49 | 1014.2 |
| 20260504204238 | 74 | 227 | 3.0 | 13.0 | 0.00 | 0.00 | 0.00 | 50 | 1014.2 |
| 20260504204138 | 74 | 220 | 3.0 | 13.0 | 0.00 | 0.00 | 0.00 | 49 | 1014.3 |
| 20260504204037 | 74 | 202 | 4.0 | 13.0 | 0.00 | 0.00 | 0.00 | 54 | 1014.3 |
| 20260504204007 | 73 | 248 | 4.0 | 14.0 | 0.00 | 0.00 | 0.00 | 53 | 1014.2 |
| 20260504203957 | 74 | 32 | 4.0 | 14.0 | 0.00 | 0.00 | 0.00 | 53 | 1014.3 |
| 20260504203736 | 73 | 173 | 4.0 | 14.0 | 0.00 | 0.00 | 0.00 | 53 | 1014.3 |
| 20260504203635 | 73 | 87 | 4.0 | 17.0 | 0.00 | 0.00 | 0.00 | 53 | 1014.3 |
| 20260504203535 | 73 | 200 | 5.0 | 17.0 | 0.00 | 0.00 | 0.00 | 51 | 1014.3 |
| 20260504203434 | 73 | 355 | 5.0 | 17.0 | 0.00 | 0.00 | 0.00 | 50 | 1014.3 |
| 20260504203336 | 73 | 204 | 5.0 | 17.0 | 0.00 | 0.00 | 0.00 | 49 | 1014.3 |
| 20260504203235 | 73 | 197 | 4.0 | 17.0 | 0.00 | 0.00 | 0.00 | 51 | 1014.4 |
| 20260504203134 | 73 | 188 | 4.0 | 17.0 | 0.00 | 0.00 | 0.00 | 52 | 1014.3 |
| 20260504203128 | 73 | 225 | 4.0 | 18.0 | 0.00 | 0.00 | 0.00 | 51 | 1014.3 |
| 20260504203122 | 73 | 205 | 4.0 | 17.0 | 0.00 | 0.00 | 0.00 | 52 | 1014.3 |
| 20260504203105 | 73 | 274 | 4.0 | 17.0 | 0.00 | 0.00 | 0.00 | 52 | 1014.3 |
| 20260504202937 | 73 | 133 | 5.0 | 17.0 | 0.00 | 0.00 | 0.00 | 51 | 1014.3 |
| 20260504202914 | 73 | 212 | 4.0 | 17.0 | 0.00 | 0.00 | 0.00 | 52 | 1014.3 |
| 20260504202530 | 73 | 118 | 4.0 | 18.0 | 0.00 | 0.00 | 0.00 | 51 | 1014.3 |
| 20260504202459 | 73 | 200 | 4.0 | 18.0 | 0.00 | 0.00 | 0.00 | 50 | 1014.3 |
| 20260504202448 | 73 | 150 | 4.0 | 18.0 | 0.00 | 0.00 | 0.00 | 50 | 1014.2 |
| 20260504202250 | 73 | 144 | 4.0 | 18.0 | 0.00 | 0.00 | 0.00 | 53 | 1014.4 |
| 20260504202237 | 73 | 144 | 5.0 | 18.0 | 0.00 | 0.00 | 0.00 | 52 | 1014.3 |
| 20260504202214 | 73 | 184 | 4.0 | 18.0 | 0.00 | 0.00 | 0.00 | 51 | 1014.4 |
| 20260504202051 | 73 | 236 | 4.0 | 18.0 | 0.00 | 0.00 | 0.00 | 51 | 1014.4 |
| 20260504201827 | 73 | 144 | 5.0 | 18.0 | 0.00 | 0.00 | 0.00 | 51 | 1014.4 |
| 20260504201726 | 73 | 196 | 5.0 | 18.0 | 0.00 | 0.00 | 0.00 | 51 | 1014.5 |
| 20260504201654 | 73 | 194 | 5.0 | 18.0 | 0.00 | 0.00 | 0.00 | 50 | 1014.5 |
| 20260504201523 | 73 | 250 | 5.0 | 18.0 | 0.00 | 0.00 | 0.00 | 50 | 1014.5 |
| 20260504201416 | 73 | 200 | 5.0 | 18.0 | 0.00 | 0.00 | 0.00 | 49 | 1014.5 |
| 20260504201317 | 73 | 189 | 5.0 | 18.0 | 0.00 | 0.00 | 0.00 | 49 | 1014.5 |
| 20260504201216 | 73 | 144 | 5.0 | 18.0 | 0.00 | 0.00 | 0.00 | 49 | 1014.5 |
| 20260504201116 | 73 | 126 | 5.0 | 18.0 | 0.00 | 0.00 | 0.00 | 49 | 1014.5 |
| 20260504201016 | 73 | 191 | 5.0 | 18.0 | 0.00 | 0.00 | 0.00 | 48 | 1014.5 |
| 20260504200912 | 73 | 225 | 5.0 | 18.0 | 0.00 | 0.00 | 0.00 | 50 | 1014.6 |
| 20260504200813 | 73 | 190 | 5.0 | 18.0 | 0.00 | 0.00 | 0.00 | 51 | 1014.5 |
| 20260504200712 | 73 | 148 | 4.0 | 18.0 | 0.00 | 0.00 | 0.00 | 51 | 1014.6 |
| 20260504200613 | 73 | 172 | 4.0 | 17.0 | 0.00 | 0.00 | 0.00 | 52 | 1014.5 |
| 20260504200539 | 73 | 182 | 4.0 | 15.0 | 0.00 | 0.00 | 0.00 | 51 | 1014.8 |
| 20260504200529 | 73 | 310 | 4.0 | 15.0 | 0.00 | 0.00 | 0.00 | 51 | 1014.7 |
| 20260504200304 | 73 | 125 | 5.0 | 15.0 | 0.00 | 0.00 | 0.00 | 52 | 1014.6 |
| 20260504200201 | 73 | 188 | 5.0 | 20.0 | 0.00 | 0.00 | 0.00 | 50 | 1014.7 |
| 20260504200001 | 73 | 225 | 5.0 | 20.0 | 0.00 | 0.00 | 0.00 | 52 | 1014.8 |
| 20260504195936 | 72 | 194 | 4.0 | 20.0 | 0.00 | 0.00 | 0.00 | 53 | 1014.8 |
| 20260504195925 | 72 | 273 | 4.0 | 20.0 | 0.00 | 0.00 | 0.00 | 54 | 1014.8 |
| 20260504195659 | 72 | 182 | 5.0 | 20.0 | 0.00 | 0.00 | 0.00 | 54 | 1014.8 |
| 20260504195602 | 72 | 146 | 5.0 | 20.0 | 0.00 | 0.00 | 0.00 | 53 | 1014.7 |
| 20260504195501 | 72 | 204 | 5.0 | 20.0 | 0.00 | 0.00 | 0.00 | 52 | 1014.7 |
| 20260504195359 | 72 | 187 | 5.0 | 20.0 | 0.00 | 0.00 | 0.00 | 54 | 1014.8 |
| 20260504195258 | 72 | 250 | 5.0 | 20.0 | 0.00 | 0.00 | 0.00 | 53 | 1014.7 |
| 20260504195229 | 72 | 39 | 5.0 | 17.0 | 0.00 | 0.00 | 0.00 | 54 | 1014.7 |
| 20260504195218 | 72 | 122 | 4.0 | 17.0 | 0.00 | 0.00 | 0.00 | 55 | 1014.8 |
| 20260504194958 | 72 | 204 | 5.0 | 17.0 | 0.00 | 0.00 | 0.00 | 53 | 1014.7 |
| 20260504194858 | 72 | 206 | 5.0 | 17.0 | 0.00 | 0.00 | 0.00 | 54 | 1015.0 |
| 20260504194758 | 72 | 208 | 5.0 | 16.0 | 0.00 | 0.00 | 0.00 | 53 | 1015.0 |
| 20260504194654 | 72 | 29 | 5.0 | 16.0 | 0.00 | 0.00 | 0.00 | 53 | 1015.0 |
| 20260504194554 | 72 | 332 | 6.0 | 16.0 | 0.00 | 0.00 | 0.00 | 54 | 1015.0 |
| 20260504194527 | 72 | 187 | 5.0 | 16.0 | 0.00 | 0.00 | 0.00 | 52 | 1015.1 |
| 20260504194515 | 72 | 185 | 5.0 | 16.0 | 0.00 | 0.00 | 0.00 | 53 | 1015.1 |
| 20260504194255 | 73 | 186 | 6.0 | 16.0 | 0.00 | 0.00 | 0.00 | 51 | 1015.1 |
| 20260504194154 | 73 | 196 | 6.0 | 16.0 | 0.00 | 0.00 | 0.00 | 50 | 1015.1 |
| 20260504194054 | 73 | 226 | 6.0 | 16.0 | 0.00 | 0.00 | 0.00 | 50 | 1015.1 |
| 20260504193954 | 73 | 199 | 5.0 | 16.0 | 0.00 | 0.00 | 0.00 | 50 | 1015.1 |
| 20260504193925 | 73 | 258 | 5.0 | 16.0 | 0.00 | 0.00 | 0.00 | 52 | 1015.1 |
| 20260504193916 | 73 | 209 | 5.0 | 16.0 | 0.00 | 0.00 | 0.00 | 50 | 1015.1 |
| 20260504193654 | 73 | 196 | 5.0 | 16.0 | 0.00 | 0.00 | 0.00 | 55 | 1015.1 |
| 20260504193555 | 73 | 190 | 4.0 | 16.0 | 0.00 | 0.00 | 0.00 | 53 | 1015.1 |
| 20260504193456 | 73 | 164 | 4.0 | 16.0 | 0.00 | 0.00 | 0.00 | 52 | 1015.1 |
| 20260504193354 | 73 | 196 | 4.0 | 16.0 | 0.00 | 0.00 | 0.00 | 52 | 1015.2 |
| 20260504193254 | 73 | 168 | 4.0 | 19.0 | 0.00 | 0.00 | 0.00 | 53 | 1015.1 |
| 20260504193155 | 73 | 210 | 4.0 | 19.0 | 0.00 | 0.00 | 0.00 | 56 | 1015.1 |
| 20260504193055 | 72 | 209 | 5.0 | 19.0 | 0.00 | 0.00 | 0.00 | 55 | 1015.2 |
| 20260504192953 | 72 | 184 | 5.0 | 19.0 | 0.00 | 0.00 | 0.00 | 53 | 1015.2 |
| 20260504192853 | 72 | 213 | 5.0 | 19.0 | 0.00 | 0.00 | 0.00 | 56 | 1015.2 |
| 20260504192809 | 71 | 161 | 6.0 | 19.0 | 0.00 | 0.00 | 0.00 | 55 | 1015.3 |
| 20260504192758 | 72 | 205 | 5.0 | 19.0 | 0.00 | 0.00 | 0.00 | 56 | 1015.2 |
| 20260504192737 | 72 | 355 | 5.0 | 19.0 | 0.00 | 0.00 | 0.00 | 55 | 1015.2 |
| 20260504192614 | 71 | 207 | 6.0 | 19.0 | 0.00 | 0.00 | 0.00 | 56 | 1015.1 |
| 20260504192352 | 71 | 207 | 6.0 | 19.0 | 0.00 | 0.00 | 0.00 | 57 | 1015.2 |
| 20260504192330 | 71 | 240 | 6.0 | 16.0 | 0.00 | 0.00 | 0.00 | 56 | 1015.3 |
| 20260504192314 | 71 | 200 | 6.0 | 16.0 | 0.00 | 0.00 | 0.00 | 56 | 1015.1 |
| 20260504192051 | 71 | 251 | 6.0 | 16.0 | 0.00 | 0.00 | 0.00 | 56 | 1015.3 |
| 20260504191952 | 71 | 217 | 6.0 | 16.0 | 0.00 | 0.00 | 0.00 | 55 | 1015.2 |
| 20260504191937 | 71 | 202 | 6.0 | 18.0 | 0.00 | 0.00 | 0.00 | 54 | 1015.2 |
| 20260504191932 | 71 | 269 | 5.0 | 18.0 | 0.00 | 0.00 | 0.00 | 55 | 1015.3 |
| 20260504191926 | 71 | 225 | 5.0 | 18.0 | 0.00 | 0.00 | 0.00 | 55 | 1015.2 |
| 20260504191916 | 71 | 205 | 6.0 | 16.0 | 0.00 | 0.00 | 0.00 | 54 | 1015.3 |
| 20260504191730 | 71 | 257 | 6.0 | 18.0 | 0.00 | 0.00 | 0.00 | 53 | 1015.3 |
| 20260504191346 | 71 | 184 | 6.0 | 18.0 | 0.00 | 0.00 | 0.00 | 54 | 1015.4 |
| 20260504191243 | 71 | 227 | 6.0 | 18.0 | 0.00 | 0.00 | 0.00 | 54 | 1015.3 |
| 20260504191216 | 72 | 196 | 6.0 | 18.0 | 0.00 | 0.00 | 0.00 | 53 | 1015.4 |
| 20260504191203 | 71 | 217 | 6.0 | 18.0 | 0.00 | 0.00 | 0.00 | 53 | 1015.3 |
| 20260504190942 | 72 | 242 | 6.0 | 18.0 | 0.00 | 0.00 | 0.00 | 54 | 1015.4 |
| 20260504190841 | 72 | 201 | 6.0 | 18.0 | 0.00 | 0.00 | 0.00 | 53 | 1015.3 |
| 20260504190735 | 72 | 192 | 6.0 | 18.0 | 0.00 | 0.00 | 0.00 | 56 | 1015.4 |
| 20260504190637 | 72 | 204 | 6.0 | 18.0 | 0.00 | 0.00 | 0.00 | 54 | 1015.3 |
| 20260504190535 | 72 | 205 | 7.0 | 18.0 | 0.00 | 0.00 | 0.00 | 53 | 1015.4 |
| 20260504190434 | 72 | 229 | 7.0 | 18.0 | 0.00 | 0.00 | 0.00 | 54 | 1015.4 |
| 20260504190335 | 72 | 186 | 7.0 | 18.0 | 0.00 | 0.00 | 0.00 | 53 | 1015.5 |
| 20260504190227 | 72 | 241 | 6.0 | 18.0 | 0.00 | 0.00 | 0.00 | 54 | 1015.5 |
| 20260504190128 | 72 | 197 | 6.0 | 18.0 | 0.00 | 0.00 | 0.00 | 55 | 1015.4 |
| 20260504190057 | 72 | 261 | 5.0 | 18.0 | 0.00 | 0.00 | 0.00 | 54 | 1015.6 |
| 20260504190048 | 72 | 213 | 6.0 | 18.0 | 0.00 | 0.00 | 0.00 | 54 | 1015.5 |
| 20260504185825 | 72 | 233 | 4.0 | 18.0 | 0.00 | 0.00 | 0.00 | 53 | 1015.6 |
| 20260504185718 | 72 | 247 | 4.0 | 16.0 | 0.00 | 0.00 | 0.00 | 55 | 1015.4 |
| 20260504185654 | 72 | 241 | 4.0 | 15.0 | 0.00 | 0.00 | 0.00 | 53 | 1015.4 |
| 20260504185641 | 72 | 190 | 4.0 | 16.0 | 0.00 | 0.00 | 0.00 | 54 | 1015.6 |
| 20260504185419 | 72 | 219 | 3.0 | 14.0 | 0.00 | 0.00 | 0.00 | 55 | 1015.5 |
| 20260504185319 | 72 | 192 | 3.0 | 14.0 | 0.00 | 0.00 | 0.00 | 58 | 1015.6 |
| 20260504185215 | 72 | 202 | 3.0 | 14.0 | 0.00 | 0.00 | 0.00 | 57 | 1015.6 |
| 20260504185117 | 72 | 134 | 3.0 | 14.0 | 0.00 | 0.00 | 0.00 | 58 | 1015.6 |
| 20260504185015 | 72 | 198 | 3.0 | 14.0 | 0.00 | 0.00 | 0.00 | 60 | 1015.6 |
| 20260504184915 | 72 | 193 | 4.0 | 15.0 | 0.00 | 0.00 | 0.00 | 60 | 1015.6 |
| 20260504184812 | 72 | 196 | 4.0 | 15.0 | 0.00 | 0.00 | 0.00 | 58 | 1015.7 |
| 20260504184705 | 72 | 213 | 5.0 | 15.0 | 0.00 | 0.00 | 0.00 | 57 | 1015.6 |
| 20260504184608 | 72 | 325 | 4.0 | 15.0 | 0.00 | 0.00 | 0.00 | 56 | 1015.7 |
| 20260504184536 | 72 | 111 | 5.0 | 15.0 | 0.00 | 0.00 | 0.00 | 54 | 1015.7 |
| 20260504184405 | 72 | 184 | 5.0 | 15.0 | 0.00 | 0.00 | 0.00 | 54 | 1015.7 |
| 20260504184329 | 72 | 323 | 4.0 | 15.0 | 0.00 | 0.00 | 0.00 | 56 | 1015.8 |
| 20260504184320 | 72 | 229 | 5.0 | 15.0 | 0.00 | 0.00 | 0.00 | 55 | 1015.8 |
| 20260504184057 | 72 | 161 | 5.0 | 15.0 | 0.00 | 0.00 | 0.00 | 53 | 1015.7 |
| 20260504183959 | 72 | 200 | 4.0 | 14.0 | 0.00 | 0.00 | 0.00 | 54 | 1015.8 |
| 20260504183922 | 72 | 213 | 4.0 | 10.0 | 0.00 | 0.00 | 0.00 | 55 | 1015.7 |
| 20260504183917 | 72 | 215 | 4.0 | 10.0 | 0.00 | 0.00 | 0.00 | 58 | 1015.7 |
| 20260504183905 | 72 | 155 | 4.0 | 14.0 | 0.00 | 0.00 | 0.00 | 56 | 1015.7 |
| 20260504183849 | 72 | 145 | 4.0 | 14.0 | 0.00 | 0.00 | 0.00 | 56 | 1015.7 |
| 20260504183557 | 72 | 187 | 4.0 | 10.0 | 0.00 | 0.00 | 0.00 | 58 | 1015.8 |
| 20260504183532 | 72 | 144 | 4.0 | 10.0 | 0.00 | 0.00 | 0.00 | 55 | 1015.7 |
| 20260504183253 | 72 | 184 | 4.0 | 12.0 | 0.00 | 0.00 | 0.00 | 57 | 1015.8 |
| 20260504183138 | 72 | 192 | 4.0 | 12.0 | 0.00 | 0.00 | 0.00 | 60 | 1015.8 |
| 20260504183107 | 72 | 207 | 4.0 | 12.0 | 0.00 | 0.00 | 0.00 | 57 | 1015.7 |
| 20260504183057 | 72 | 175 | 4.0 | 12.0 | 0.00 | 0.00 | 0.00 | 60 | 1015.8 |
| 20260504182836 | 71 | 192 | 4.0 | 12.0 | 0.00 | 0.00 | 0.00 | 57 | 1015.8 |
| 20260504182736 | 71 | 242 | 4.0 | 12.0 | 0.00 | 0.00 | 0.00 | 57 | 1015.7 |
| 20260504182705 | 71 | 225 | 4.0 | 12.0 | 0.00 | 0.00 | 0.00 | 55 | 1015.8 |
| 20260504182655 | 71 | 221 | 4.0 | 12.0 | 0.00 | 0.00 | 0.00 | 55 | 1015.8 |
| 20260504182432 | 71 | 204 | 3.0 | 12.0 | 0.00 | 0.00 | 0.00 | 56 | 1015.8 |
| 20260504182333 | 71 | 155 | 4.0 | 11.0 | 0.00 | 0.00 | 0.00 | 59 | 1015.8 |
| 20260504182230 | 71 | 255 | 4.0 | 11.0 | 0.00 | 0.00 | 0.00 | 61 | 1015.8 |
| 20260504182127 | 71 | 230 | 4.0 | 11.0 | 0.00 | 0.00 | 0.00 | 61 | 1015.8 |
| 20260504182055 | 70 | 177 | 5.0 | 12.0 | 0.00 | 0.00 | 0.00 | 59 | 1015.7 |
| 20260504182046 | 70 | 243 | 4.0 | 11.0 | 0.00 | 0.00 | 0.00 | 60 | 1015.8 |
| 20260504181824 | 70 | 207 | 5.0 | 16.0 | 0.00 | 0.00 | 0.00 | 58 | 1015.7 |
| 20260504181725 | 70 | 338 | 5.0 | 16.0 | 0.00 | 0.00 | 0.00 | 58 | 1015.8 |
| 20260504181617 | 70 | 228 | 5.0 | 16.0 | 0.00 | 0.00 | 0.00 | 57 | 1015.8 |
| 20260504181514 | 70 | 190 | 5.0 | 16.0 | 0.00 | 0.00 | 0.00 | 57 | 1015.7 |
| 20260504181413 | 70 | 206 | 5.0 | 16.0 | 0.00 | 0.00 | 0.00 | 58 | 1015.8 |
| 20260504181315 | 69 | 202 | 5.0 | 16.0 | 0.00 | 0.00 | 0.00 | 57 | 1015.8 |
| 20260504181245 | 70 | 206 | 5.0 | 16.0 | 0.00 | 0.00 | 0.00 | 57 | 1015.8 |
| 20260504181234 | 70 | 190 | 5.0 | 16.0 | 0.00 | 0.00 | 0.00 | 56 | 1015.8 |
| 20260504181008 | 70 | 190 | 5.0 | 16.0 | 0.00 | 0.00 | 0.00 | 59 | 1015.9 |
| 20260504180909 | 70 | 198 | 4.0 | 15.0 | 0.00 | 0.00 | 0.00 | 59 | 1015.9 |
| 20260504180808 | 70 | 234 | 4.0 | 15.0 | 0.00 | 0.00 | 0.00 | 59 | 1016.0 |
| 20260504180709 | 70 | 303 | 4.0 | 12.0 | 0.00 | 0.00 | 0.00 | 59 | 1016.0 |
| 20260504180639 | 70 | 219 | 4.0 | 12.0 | 0.00 | 0.00 | 0.00 | 59 | 1016.1 |
| 20260504180628 | 70 | 177 | 4.0 | 12.0 | 0.00 | 0.00 | 0.00 | 59 | 1016.0 |
| 20260504180404 | 70 | 200 | 5.0 | 13.0 | 0.00 | 0.00 | 0.00 | 58 | 1016.1 |
| 20260504180333 | 70 | 196 | 5.0 | 15.0 | 0.00 | 0.00 | 0.00 | 59 | 1016.1 |
| 20260504180323 | 70 | 243 | 5.0 | 15.0 | 0.00 | 0.00 | 0.00 | 57 | 1016.1 |
| 20260504180050 | 69 | 175 | 4.0 | 15.0 | 0.00 | 0.00 | 0.00 | 59 | 1016.0 |
| 20260504175951 | 69 | 255 | 5.0 | 15.0 | 0.00 | 0.00 | 0.00 | 60 | 1016.0 |
| 20260504175923 | 69 | 96 | 5.0 | 15.0 | 0.00 | 0.00 | 0.00 | 58 | 1016.1 |
| 20260504175913 | 69 | 227 | 5.0 | 15.0 | 0.00 | 0.00 | 0.00 | 61 | 1016.0 |
| 20260504175649 | 69 | 217 | 5.0 | 15.0 | 0.00 | 0.00 | 0.00 | 57 | 1015.9 |
| 20260504175550 | 69 | 225 | 4.0 | 15.0 | 0.00 | 0.00 | 0.00 | 58 | 1016.0 |
| 20260504175450 | 70 | 215 | 4.0 | 15.0 | 0.00 | 0.00 | 0.00 | 57 | 1016.0 |
| 20260504175350 | 70 | 243 | 4.0 | 15.0 | 0.00 | 0.00 | 0.00 | 58 | 1016.0 |
| 20260504175251 | 70 | 246 | 4.0 | 14.0 | 0.00 | 0.00 | 0.00 | 58 | 1015.9 |
| 20260504175149 | 70 | 223 | 4.0 | 14.0 | 0.00 | 0.00 | 0.00 | 59 | 1016.0 |
| 20260504175050 | 70 | 219 | 4.0 | 14.0 | 0.00 | 0.00 | 0.00 | 58 | 1015.9 |
| 20260504175020 | 70 | 161 | 4.0 | 14.0 | 0.00 | 0.00 | 0.00 | 59 | 1015.9 |
| 20260504175011 | 70 | 178 | 4.0 | 14.0 | 0.00 | 0.00 | 0.00 | 60 | 1016.0 |
| 20260504174751 | 70 | 134 | 4.0 | 14.0 | 0.00 | 0.00 | 0.00 | 58 | 1016.0 |
| 20260504174649 | 70 | 239 | 5.0 | 15.0 | 0.00 | 0.00 | 0.00 | 59 | 1016.0 |
| 20260504174550 | 70 | 209 | 5.0 | 15.0 | 0.00 | 0.00 | 0.00 | 58 | 1016.0 |
| 20260504174451 | 70 | 267 | 5.0 | 15.0 | 0.00 | 0.00 | 0.00 | 58 | 1016.0 |
| 20260504174347 | 70 | 202 | 4.0 | 15.0 | 0.00 | 0.00 | 0.00 | 58 | 1015.9 |
| 20260504174247 | 70 | 201 | 5.0 | 15.0 | 0.00 | 0.00 | 0.00 | 62 | 1015.9 |
| 20260504174149 | 70 | 200 | 4.0 | 15.0 | 0.00 | 0.00 | 0.00 | 60 | 1015.9 |
| 20260504174049 | 70 | 226 | 5.0 | 15.0 | 0.00 | 0.00 | 0.00 | 58 | 1015.9 |
| 20260504174021 | 70 | 211 | 5.0 | 15.0 | 0.00 | 0.00 | 0.00 | 59 | 1016.0 |
| 20260504174008 | 70 | 284 | 5.0 | 15.0 | 0.00 | 0.00 | 0.00 | 56 | 1016.0 |
| 20260504173748 | 70 | 209 | 5.0 | 15.0 | 0.00 | 0.00 | 0.00 | 58 | 1016.0 |
| 20260504173648 | 70 | 264 | 4.0 | 13.0 | 0.00 | 0.00 | 0.00 | 58 | 1016.0 |
| 20260504173549 | 70 | 198 | 4.0 | 13.0 | 0.00 | 0.00 | 0.00 | 58 | 1015.9 |
| 20260504173448 | 70 | 213 | 5.0 | 13.0 | 0.00 | 0.00 | 0.00 | 58 | 1016.0 |
| 20260504173349 | 70 | 239 | 5.0 | 13.0 | 0.00 | 0.00 | 0.00 | 57 | 1015.9 |
| 20260504173248 | 70 | 288 | 5.0 | 16.0 | 0.00 | 0.00 | 0.00 | 56 | 1016.0 |
| 20260504173150 | 70 | 229 | 5.0 | 16.0 | 0.00 | 0.00 | 0.00 | 56 | 1016.0 |
| 20260504173047 | 70 | 257 | 5.0 | 16.0 | 0.00 | 0.00 | 0.00 | 55 | 1016.0 |
| 20260504172949 | 70 | 206 | 5.0 | 16.0 | 0.00 | 0.00 | 0.00 | 57 | 1016.2 |
| 20260504172849 | 70 | 223 | 5.0 | 17.0 | 0.00 | 0.00 | 0.00 | 57 | 1016.3 |
| 20260504172822 | 70 | 267 | 5.0 | 17.0 | 0.00 | 0.00 | 0.00 | 59 | 1016.3 |
| 20260504172811 | 70 | 247 | 5.0 | 17.0 | 0.00 | 0.00 | 0.00 | 57 | 1016.2 |
| 20260504172547 | 70 | 241 | 5.0 | 17.0 | 0.00 | 0.00 | 0.00 | 61 | 1016.2 |
| 20260504172449 | 70 | 202 | 5.0 | 17.0 | 0.00 | 0.00 | 0.00 | 59 | 1016.3 |
| 20260504172424 | 69 | 229 | 4.0 | 17.0 | 0.00 | 0.00 | 0.00 | 57 | 1016.3 |
| 20260504172419 | 69 | 232 | 5.0 | 18.0 | 0.00 | 0.00 | 0.00 | 60 | 1016.3 |
| 20260504172409 | 69 | 239 | 5.0 | 17.0 | 0.00 | 0.00 | 0.00 | 58 | 1016.2 |
| 20260504172344 | 69 | 195 | 4.0 | 17.0 | 0.00 | 0.00 | 0.00 | 57 | 1016.3 |
| 20260504172230 | 69 | 215 | 4.0 | 18.0 | 0.00 | 0.00 | 0.00 | 59 | 1016.3 |
| 20260504172226 | 69 | 197 | 5.0 | 18.0 | 0.00 | 0.00 | 0.00 | 59 | 1016.2 |
| 20260504172214 | 69 | 200 | 4.0 | 17.0 | 0.00 | 0.00 | 0.00 | 58 | 1016.2 |
| 20260504172034 | 69 | 256 | 4.0 | 18.0 | 0.00 | 0.00 | 0.00 | 57 | 1016.3 |
| 20260504171848 | 69 | 247 | 5.0 | 18.0 | 0.00 | 0.00 | 0.00 | 60 | 1016.2 |
| 20260504171606 | 69 | 231 | 5.0 | 18.0 | 0.00 | 0.00 | 0.00 | 58 | 1016.2 |
| 20260504171338 | 69 | 181 | 5.0 | 18.0 | 0.00 | 0.00 | 0.00 | 59 | 1016.3 |
| 20260504171239 | 69 | 173 | 6.0 | 18.0 | 0.00 | 0.00 | 0.00 | 58 | 1016.3 |
| 20260504171137 | 68 | 227 | 6.0 | 18.0 | 0.00 | 0.00 | 0.00 | 58 | 1016.2 |
| 20260504171107 | 69 | 200 | 6.0 | 18.0 | 0.00 | 0.00 | 0.00 | 59 | 1016.3 |
| 20260504171058 | 69 | 186 | 6.0 | 18.0 | 0.00 | 0.00 | 0.00 | 59 | 1016.3 |
| 20260504170910 | 69 | 204 | 4.0 | 13.0 | 0.00 | 0.00 | 0.00 | 58 | 1016.4 |
| 20260504170904 | 69 | 182 | 4.0 | 13.0 | 0.00 | 0.00 | 0.00 | 58 | 1016.4 |
| 20260504170858 | 69 | 211 | 4.0 | 13.0 | 0.00 | 0.00 | 0.00 | 56 | 1016.3 |
| 20260504170853 | 70 | 201 | 3.0 | 12.0 | 0.00 | 0.00 | 0.00 | 58 | 1016.3 |
| 20260504170841 | 69 | 240 | 5.0 | 18.0 | 0.00 | 0.00 | 0.00 | 58 | 1016.3 |
| 20260504170821 | 69 | 205 | 5.0 | 17.0 | 0.00 | 0.00 | 0.00 | 58 | 1016.3 |
| 20260504170757 | 69 | 209 | 4.0 | 13.0 | 0.00 | 0.00 | 0.00 | 57 | 1016.3 |
| 20260504170134 | 70 | 236 | 3.0 | 12.0 | 0.00 | 0.00 | 0.00 | 57 | 1016.5 |
| 20260504160400 | 66 | 214 | 3.0 | 12.0 | 0.00 | 0.00 | 0.00 | 62 | 1017.3 |
| 20260504160334 | 66 | 230 | 3.0 | 12.0 | 0.00 | 0.00 | 0.00 | 63 | 1017.3 |
| 20260504160322 | 66 | 211 | 3.0 | 12.0 | 0.00 | 0.00 | 0.00 | 62 | 1017.3 |
| 20260504150951 | 61 | 211 | 6.0 | 17.0 | 0.00 | 0.00 | 0.00 | 66 | 1017.2 |
| 20260504150851 | 61 | 217 | 6.0 | 17.0 | 0.00 | 0.00 | 0.00 | 65 | 1017.2 |
| 20260504150752 | 61 | 208 | 6.0 | 17.0 | 0.00 | 0.00 | 0.00 | 65 | 1017.2 |
| 20260504150651 | 61 | 225 | 6.0 | 17.0 | 0.00 | 0.00 | 0.00 | 65 | 1017.2 |
| 20260504150552 | 61 | 187 | 6.0 | 14.0 | 0.00 | 0.00 | 0.00 | 67 | 1017.1 |
| 20260504150452 | 61 | 186 | 6.0 | 14.0 | 0.00 | 0.00 | 0.00 | 67 | 1017.1 |
| 20260504150353 | 61 | 235 | 6.0 | 14.0 | 0.00 | 0.00 | 0.00 | 66 | 1017.2 |
| 20260504150309 | 61 | 205 | 5.0 | 14.0 | 0.00 | 0.00 | 0.00 | 67 | 1017.2 |
| 20260504150304 | 61 | 196 | 5.0 | 14.0 | 0.00 | 0.00 | 0.00 | 67 | 1017.1 |
| 20260504150253 | 61 | 178 | 6.0 | 14.0 | 0.00 | 0.00 | 0.00 | 66 | 1017.1 |
| 20260504150230 | 61 | 259 | 6.0 | 14.0 | 0.00 | 0.00 | 0.00 | 65 | 1017.1 |
| 20260504141128 | 57 | 213 | 7.0 | 16.0 | 0.00 | 0.00 | 0.00 | 70 | 1017.4 |
| 20260504141028 | 57 | 192 | 7.0 | 17.0 | 0.00 | 0.00 | 0.00 | 70 | 1017.3 |
| 20260504140928 | 57 | 213 | 7.0 | 17.0 | 0.00 | 0.00 | 0.00 | 70 | 1017.3 |
| 20260504140825 | 57 | 210 | 6.0 | 17.0 | 0.00 | 0.00 | 0.00 | 70 | 1017.4 |
| 20260504140725 | 56 | 234 | 6.0 | 17.0 | 0.00 | 0.00 | 0.00 | 70 | 1017.4 |
| 20260504140626 | 56 | 211 | 6.0 | 17.0 | 0.00 | 0.00 | 0.00 | 71 | 1017.4 |
| 20260504140528 | 56 | 207 | 6.0 | 17.0 | 0.00 | 0.00 | 0.00 | 71 | 1017.4 |
| 20260504140426 | 56 | 195 | 6.0 | 17.0 | 0.00 | 0.00 | 0.00 | 71 | 1017.4 |
| 20260504140325 | 56 | 213 | 6.0 | 17.0 | 0.00 | 0.00 | 0.00 | 70 | 1017.4 |
| 20260504140226 | 56 | 210 | 6.0 | 17.0 | 0.00 | 0.00 | 0.00 | 70 | 1017.4 |
| 20260504140152 | 56 | 207 | 7.0 | 16.0 | 0.00 | 0.00 | 0.00 | 70 | 1017.4 |
| 20260504140136 | 56 | 217 | 6.0 | 17.0 | 0.00 | 0.00 | 0.00 | 70 | 1017.5 |
| 20260504140112 | 56 | 208 | 6.0 | 16.0 | 0.00 | 0.00 | 0.00 | 70 | 1017.4 |
| 20260504130811 | 53 | 209 | 6.0 | 17.0 | 0.00 | 0.00 | 0.00 | 71 | 1017.4 |
| 20260504130711 | 53 | 209 | 6.0 | 17.0 | 0.00 | 0.00 | 0.00 | 71 | 1017.3 |
| 20260504130609 | 53 | 194 | 6.0 | 17.0 | 0.00 | 0.00 | 0.00 | 70 | 1017.4 |
| 20260504130507 | 52 | 227 | 6.0 | 17.0 | 0.00 | 0.00 | 0.00 | 70 | 1017.3 |
| 20260504130406 | 52 | 194 | 6.0 | 16.0 | 0.00 | 0.00 | 0.00 | 71 | 1017.3 |
| 20260504130343 | 52 | 190 | 6.0 | 13.0 | 0.00 | 0.00 | 0.00 | 70 | 1017.4 |
| 20260504130330 | 52 | 203 | 6.0 | 14.0 | 0.00 | 0.00 | 0.00 | 71 | 1017.4 |
| 20260504130108 | 52 | 238 | 6.0 | 12.0 | 0.00 | 0.00 | 0.00 | 70 | 1017.3 |
| 20260504120253 | 51 | 244 | 7.0 | 18.0 | 0.00 | 0.00 | 0.00 | 70 | 1016.9 |
| 20260504120148 | 51 | 224 | 6.0 | 18.0 | 0.00 | 0.00 | 0.00 | 70 | 1016.9 |
| 20260504120123 | 51 | 168 | 7.0 | 18.0 | 0.00 | 0.00 | 0.00 | 70 | 1016.9 |
| 20260504120112 | 51 | 196 | 7.0 | 18.0 | 0.00 | 0.00 | 0.00 | 70 | 1016.9 |
| 20260504110706 | 51 | 219 | 7.0 | 21.0 | 0.00 | 0.00 | 0.00 | 68 | 1016.4 |
| 20260504110607 | 51 | 208 | 7.0 | 21.0 | 0.00 | 0.00 | 0.00 | 68 | 1016.4 |
| 20260504110506 | 51 | 206 | 7.0 | 21.0 | 0.00 | 0.00 | 0.00 | 68 | 1016.5 |
| 20260504110406 | 51 | 200 | 7.0 | 21.0 | 0.00 | 0.00 | 0.00 | 68 | 1016.4 |
| 20260504110306 | 51 | 215 | 7.0 | 21.0 | 0.00 | 0.00 | 0.00 | 68 | 1016.4 |
| 20260504110203 | 51 | 200 | 7.0 | 21.0 | 0.00 | 0.00 | 0.00 | 68 | 1016.4 |
| 20260504100610 | 51 | 197 | 6.0 | 16.0 | 0.00 | 0.00 | 0.00 | 68 | 1016.2 |
| 20260504100510 | 51 | 200 | 6.0 | 16.0 | 0.00 | 0.00 | 0.00 | 68 | 1016.2 |
| 20260504100410 | 51 | 196 | 7.0 | 16.0 | 0.00 | 0.00 | 0.00 | 68 | 1016.3 |
| 20260504100310 | 51 | 187 | 7.0 | 16.0 | 0.00 | 0.00 | 0.00 | 67 | 1016.3 |
| 20260504100203 | 51 | 215 | 7.0 | 16.0 | 0.00 | 0.00 | 0.00 | 67 | 1016.3 |
| 20260504100104 | 51 | 210 | 7.0 | 16.0 | 0.00 | 0.00 | 0.00 | 67 | 1016.3 |